GFSGBSN_925_rhum_036.txt.gz
RH
69 71 70 75 73 71 69 75 73 74 74 73 72 70 67 68 70 77 86 93 100 99 96 97 83 73 67 72 59 65 60 79 85 81 76 67 48 46 51 40 39 43 38 32 31 32 34
75 77 83 80 74 68 71 79 81 77 81 74 73 71 72 70 70 79 83 91 95 99 97 94 86 77 76 64 42 52 51 50 57 66 75 66 46 42 45 39 39 34 37 37 34 32 35
89 76 78 70 78 76 79 81 83 85 78 75 74 73 72 73 72 79 85 88 92 99 99 96 93 82 63 56 41 45 48 47 54 51 72 66 55 53 47 51 45 43 56 47 43 40 40
78 76 75 78 77 80 80 78 80 86 86 78 78 79 74 75 75 79 86 89 91 95 100 89 94 76 67 50 50 51 43 45 54 61 54 67 64 56 56 50 48 55 56 70 39 39 36
79 70 76 82 83 77 75 87 88 92 82 83 83 82 80 81 81 80 92 92 91 95 99 93 90 77 63 53 48 48 42 43 49 60 61 61 57 61 59 72 68 54 68 57 45 34 34
79 86 85 69 78 76 81 86 82 82 78 82 82 85 85 83 85 85 86 92 73 86 85 97 71 78 54 55 45 42 42 47 48 50 69 75 70 74 70 73 80 62 65 54 47 37 38
86 78 68 75 79 84 79 79 80 82 82 81 88 88 86 79 87 83 78 84 90 96 99 85 74 52 47 45 48 42 44 49 49 57 73 72 79 87 71 60 56 54 49 47 41 31 37
80 74 74 86 86 83 81 81 82 81 82 84 87 83 74 84 92 95 92 79 79 95 98 76 61 49 46 48 55 46 45 58 62 83 57 62 76 49 43 45 52 46 50 52 42 34 39
77 78 82 88 86 85 83 82 83 80 82 86 77 74 81 92 79 82 82 70 72 78 98 83 60 53 53 46 53 55 47 49 64 67 68 63 51 45 48 47 51 52 57 54 51 44 42
82 76 84 86 84 84 83 83 83 80 81 76 74 89 95 82 97 76 70 72 82 82 100 98 81 59 56 49 56 44 43 45 56 72 58 60 44 44 48 54 48 61 42 45 47 58 68
80 80 88 84 82 83 81 81 84 75 74 75 86 88 94 98 92 83 76 76 91 94 98 92 82 49 54 54 58 56 45 42 52 53 53 63 52 57 58 50 44 52 47 50 52 62 64
82 78 84 82 82 81 84 82 82 75 74 81 88 91 94 90 95 87 77 80 89 99 97 99 85 71 72 57 56 53 54 47 45 46 46 51 41 47 50 44 45 48 51 53 58 62 89
76 79 85 84 82 81 82 81 83 72 75 81 87 91 98 95 86 84 85 90 99 97 91 99 89 73 66 67 69 64 72 76 76 92 90 62 59 49 47 56 50 52 68 94 97 92 89
78 88 87 84 81 82 78 83 73 71 79 85 95 93 92 82 72 82 79 96 97 96 99 56 74 71 69 64 70 68 79 84 62 59 80 84 77 59 52 58 62 65 65 93 82 85 64
80 90 89 83 78 81 78 77 70 71 83 89 97 93 86 84 82 82 94 92 99 90 59 78 74 87 78 63 66 72 74 69 56 57 74 77 69 47 53 48 54 65 82 55 77 63 87
79 87 87 83 81 82 77 79 74 86 92 98 100 92 94 87 76 80 96 80 100 79 52 56 74 62 76 72 67 69 72 54 56 48 47 62 70 51 54 44 46 57 51 91 95 96 82
84 83 78 77 78 82 79 79 80 92 99 96 90 91 94 84 74 94 96 78 87 75 48 66 56 57 53 66 61 63 58 49 45 48 46 49 60 67 66 71 69 69 74 71 71 81 86
82 77 83 80 79 82 82 80 79 96 97 76 89 98 85 82 98 100 94 88 82 80 48 44 42 45 50 51 59 54 59 48 41 44 55 49 62 89 78 48 51 52 65 64 88 78 79
80 80 82 78 79 80 82 84 80 95 100 90 91 92 84 92 100 100 96 94 81 70 56 53 51 42 43 53 61 49 51 46 45 47 52 53 76 90 86 61 49 60 56 54 64 84 90
84 83 82 77 79 82 82 87 80 91 93 93 90 94 88 92 88 90 98 84 79 64 56 49 48 44 45 56 45 56 64 52 46 47 59 50 64 82 92 87 80 94 76 62 74 98 81
82 80 79 79 81 83 83 88 83 86 79 92 80 91 81 98 85 85 87 78 74 67 56 50 52 48 49 58 61 59 56 63 53 62 53 61 98 78 77 65 70 79 78 73 98 95 98
77 78 77 79 76 77 85 86 84 87 80 80 95 98 83 68 64 69 81 94 70 60 59 57 58 52 50 55 63 66 55 54 63 58 60 61 97 83 90 67 66 77 65 64 70 93 96
79 78 76 73 79 82 90 86 81 90 88 94 86 88 98 66 57 60 64 66 55 57 62 53 52 54 62 64 60 62 58 50 54 61 64 78 96 94 87 66 68 81 68 82 93 85 92
80 79 76 75 77 85 87 84 81 81 91 98 91 97 89 79 67 57 49 51 55 52 63 57 52 62 63 52 57 65 68 70 71 69 69 93 89 86 96 79 95 67 65 66 74 72 74
81 80 78 76 75 75 74 78 80 82 82 94 98 99 98 86 57 51 47 51 59 58 60 66 70 70 63 64 67 78 80 82 77 78 78 84 90 93 95 80 67 50 52 61 76 78 71
86 79 80 79 76 75 74 74 77 82 82 90 100 100 99 100 59 41 45 48 54 61 65 79 75 71 68 85 88 88 82 61 89 91 73 84 83 85 90 95 83 54 52 50 68 89 58
92 78 81 81 78 76 75 74 76 81 81 89 98 99 100 100 67 47 53 55 57 58 83 77 84 89 74 91 88 89 79 56 66 93 90 98 94 97 96 96 72 44 51 60 88 74 59
87 81 81 84 80 79 77 74 75 78 82 87 90 100 99 100 87 60 50 54 56 65 72 86 88 87 92 88 93 88 88 68 69 68 77 85 92 92 97 99 92 43 48 62 61 55 57
90 77 82 85 82 80 78 75 75 78 80 85 93 88 96 100 93 76 70 66 65 65 70 75 78 70 77 87 86 94 95 80 60 76 50 73 60 70 71 74 47 48 47 49 57 62 62

GFSGBSN_925_rhum_039.txt.gz
RH
80 88 79 75 73 74 79 84 81 88 84 81 77 73 70 74 74 73 70 72 83 97 100 99 94 95 84 87 72 59 49 75 78 77 81 79 75 58 62 56 52 52 47 40 38 40 36
92 82 83 81 76 79 85 83 78 78 87 88 81 80 81 76 74 71 71 75 76 92 98 100 89 93 95 88 52 51 59 77 82 80 80 79 62 50 53 52 50 41 45 46 43 45 42
76 75 69 81 82 80 76 72 87 92 92 91 87 75 83 82 80 76 74 75 83 88 96 100 89 94 80 71 41 50 49 50 55 68 79 74 64 56 53 52 50 48 57 56 52 48 48
72 81 94 86 66 64 80 84 85 85 84 78 77 88 86 83 87 84 80 80 90 89 94 95 94 87 85 52 46 48 46 48 55 59 64 63 68 59 57 51 50 57 60 79 56 47 46
73 89 81 68 75 88 85 78 83 82 81 83 85 86 86 85 87 87 88 86 88 90 92 88 98 83 77 52 54 50 43 44 52 59 59 70 75 71 62 70 71 61 83 76 64 42 44
87 81 78 78 88 88 86 86 84 83 84 84 87 86 77 87 84 87 90 85 70 90 82 90 90 84 68 60 50 49 43 43 53 71 71 79 80 90 84 83 93 76 77 67 62 43 42
83 83 78 82 89 86 84 83 83 83 80 81 86 88 84 77 85 93 90 75 85 96 94 88 81 71 54 49 44 50 43 51 52 67 95 83 89 95 85 80 67 63 67 60 48 39 41
82 82 76 91 86 80 80 80 78 83 80 80 83 80 78 85 92 91 86 88 84 92 93 77 76 66 50 47 57 49 44 63 73 89 66 75 83 64 60 60 63 70 69 60 50 40 44
78 79 84 87 80 78 79 82 81 81 79 74 75 79 88 95 96 77 80 76 79 71 96 90 85 72 57 51 60 59 52 59 76 80 69 78 56 49 55 56 60 55 61 60 59 52 49
85 73 80 85 82 82 82 85 83 80 76 76 80 88 92 94 97 83 85 78 85 77 100 98 95 71 56 57 67 47 48 54 62 71 67 63 48 50 57 60 53 65 50 54 56 64 76
77 77 87 86 84 83 83 79 84 85 75 78 80 87 86 95 98 87 77 89 87 85 97 98 92 55 60 67 63 61 46 48 67 68 64 75 58 58 57 55 48 60 52 57 60 69 71
74 84 90 89 86 84 81 77 83 75 70 76 82 87 95 94 94 88 81 85 88 98 96 100 85 77 84 65 62 61 57 48 46 56 58 57 46 50 57 46 50 50 53 56 63 72 97
78 84 92 86 82 83 83 76 77 72 76 82 92 96 97 97 87 91 80 93 94 98 98 100 95 76 75 75 70 67 72 77 79 89 91 63 61 50 48 61 51 61 70 95 89 91 89
75 79 86 84 83 83 81 77 75 80 89 92 98 95 77 88 83 85 77 93 98 97 100 89 74 70 83 71 74 72 80 86 69 65 88 88 88 67 56 62 70 72 69 91 91 98 83
80 78 82 86 72 80 81 80 78 89 92 99 98 78 90 85 73 84 91 94 98 100 93 94 85 97 96 69 78 75 78 80 65 65 78 89 78 53 52 51 57 71 86 62 82 75 94
80 80 76 88 73 84 81 80 79 90 96 84 87 87 88 86 81 76 99 97 97 96 74 69 95 74 93 74 84 82 76 62 56 56 54 62 79 63 58 50 55 60 59 85 94 96 93
74 84 82 83 74 82 83 84 79 98 88 69 77 89 93 81 64 91 98 100 100 80 67 66 65 67 65 74 75 72 76 57 52 56 54 51 62 76 62 69 74 72 66 64 78 91 93
85 83 81 82 75 88 82 85 84 99 82 74 86 95 81 85 96 100 96 90 93 92 72 65 47 56 58 64 68 58 70 56 48 50 64 51 70 94 80 60 57 63 68 73 93 76 93
85 76 76 83 79 84 82 88 85 97 99 98 93 89 74 88 99 97 92 85 91 82 61 56 60 47 49 59 66 55 63 51 48 50 58 57 78 93 83 69 59 73 67 64 70 84 91
77 76 77 75 71 72 85 87 82 93 90 94 92 92 90 96 93 97 92 100 98 75 61 51 49 45 54 60 56 70 66 56 49 56 56 51 75 80 86 83 82 89 77 68 77 98 81
82 77 76 74 80 85 89 87 81 81 79 84 92 92 85 95 95 91 89 82 81 74 61 54 52 49 51 64 61 70 66 63 57 57 57 67 88 81 78 75 80 77 78 78 87 80 97
81 78 78 75 74 77 84 86 84 80 84 80 97 99 86 92 79 78 89 92 77 71 67 64 65 63 60 62 66 61 66 68 70 64 66 68 96 91 92 74 77 86 72 73 74 73 77
82 82 76 78 76 74 73 77 82 83 86 94 88 89 98 79 72 72 82 66 69 62 62 62 58 72 79 75 70 67 58 57 61 73 73 80 94 98 96 71 75 87 70 66 78 85 84
86 90 80 75 78 76 73 74 78 83 86 92 91 96 98 81 79 67 59 57 67 63 69 69 75 77 69 58 66 70 72 75 71 74 68 85 93 93 95 83 94 64 58 62 75 77 77
88 91 83 81 80 78 75 74 75 82 84 92 99 99 99 93 71 60 50 69 66 71 74 84 83 79 68 66 73 88 85 85 87 83 83 79 84 97 96 95 70 54 57 64 82 78 67
89 93 76 80 83 80 76 76 73 78 82 89 95 100 100 93 73 75 48 61 69 73 66 91 77 76 73 87 86 81 90 76 90 89 78 85 83 98 97 98 88 57 52 53 73 93 60
91 93 75 87 85 81 79 71 73 74 82 87 92 99 100 100 83 76 55 57 59 68 85 84 82 84 77 92 83 89 85 65 92 91 87 100 100 98 91 97 82 55 47 64 83 69 60
90 95 78 84 86 83 76 69 73 71 79 85 89 99 98 100 89 77 73 63 60 68 83 88 83 87 89 92 88 91 96 81 82 85 83 90 96 99 97 99 93 46 57 69 61 61 61
90 95 78 82 84 80 74 72 76 75 77 86 90 91 94 100 94 88 77 68 65 65 84 85 82 82 83 90 91 93 85 93 82 84 65 88 74 80 80 77 52 48 51 58 59 66 66

GFSGBSN_925_rhum_045.txt.gz
RH
85 82 82 85 74 74 82 90 91 90 85 83 83 80 82 86 81 86 88 87 83 68 65 68 82 97 97 88 79 49 60 82 79 84 83 79 79 73 76 70 61 62 54 50 46 47 47
80 81 95 74 80 80 86 88 89 89 86 85 84 84 85 83 83 82 87 85 82 72 74 76 86 98 93 84 45 35 47 79 81 87 78 77 80 66 67 61 68 56 55 52 47 46 47
84 91 79 81 70 85 89 86 82 80 76 78 82 85 85 86 85 87 87 85 84 79 83 82 85 100 94 73 48 56 66 77 82 86 84 73 70 62 59 59 52 50 57 54 54 49 51
84 80 80 77 84 87 83 80 76 79 77 72 80 82 82 87 88 89 88 85 87 85 85 85 86 100 93 61 56 58 55 76 72 72 71 72 71 62 60 54 57 63 63 73 51 51 48
86 84 83 73 82 85 79 79 78 79 82 79 81 85 81 85 89 85 84 89 86 86 85 85 88 95 85 58 66 52 52 51 72 77 75 66 71 74 64 74 78 66 85 77 64 50 50
81 86 78 80 81 84 82 84 83 82 81 82 77 76 79 82 83 87 93 90 65 88 85 82 85 97 82 70 57 49 50 48 60 80 87 85 87 93 86 81 93 87 76 74 70 50 52
84 77 78 85 90 87 86 83 80 84 85 89 83 80 83 83 88 93 96 84 76 82 91 85 81 76 69 57 52 54 50 48 77 87 98 90 97 94 83 73 62 67 71 72 64 47 46
90 80 82 89 89 80 84 83 85 85 78 90 86 75 81 86 88 96 96 91 77 75 82 71 68 68 77 58 72 62 48 60 80 93 95 99 94 81 81 78 80 71 75 72 58 47 47
85 75 80 83 90 86 77 87 86 79 72 74 75 76 82 87 92 87 92 84 70 74 88 62 76 84 80 55 69 72 51 66 77 92 83 80 75 73 80 84 91 77 76 67 64 56 51
82 73 81 84 88 86 73 88 85 73 78 85 89 92 87 88 88 95 88 82 74 82 90 89 91 84 82 59 72 52 50 64 75 91 73 63 50 71 68 78 70 69 52 56 61 64 79
78 77 72 76 89 75 81 79 75 84 89 94 99 93 94 93 93 98 89 87 87 78 57 72 90 93 65 68 67 65 55 54 80 76 66 73 61 69 72 62 51 62 54 59 61 72 68
77 79 78 84 85 71 82 80 85 89 98 85 98 93 86 91 90 83 84 90 83 93 97 93 90 95 82 69 69 73 64 49 56 61 58 61 51 51 54 57 51 54 58 68 79 75 88
79 80 85 83 81 76 84 79 87 95 97 80 82 85 87 86 90 90 85 89 93 94 97 100 99 80 80 78 82 75 73 69 82 98 100 68 65 53 54 66 58 59 70 86 80 93 80
78 87 81 76 83 77 76 86 83 96 91 76 85 83 97 96 98 81 76 90 94 94 99 90 85 76 97 76 78 76 77 81 67 74 94 93 93 62 54 62 71 66 66 82 64 89 84
80 87 78 78 74 76 83 82 84 96 92 73 72 80 93 92 83 76 93 96 97 99 100 96 86 99 99 86 86 83 74 75 68 60 76 84 76 59 56 56 58 74 85 63 84 80 95
84 83 79 77 78 85 88 85 85 91 96 82 67 77 82 80 78 77 98 97 99 100 97 74 99 95 94 94 96 89 74 66 63 59 56 65 91 64 60 54 59 61 65 85 93 66 82
85 84 79 78 79 78 78 83 86 91 98 85 68 89 67 77 75 91 98 100 100 88 81 77 90 85 83 81 77 73 73 62 55 62 56 61 74 83 66 69 80 74 83 84 82 84 86
84 86 79 80 82 80 80 82 87 92 98 92 83 89 60 73 91 94 100 100 97 89 80 86 63 66 73 72 69 68 69 62 55 58 64 56 80 93 75 62 59 64 71 76 86 74 94
84 86 82 80 83 81 80 82 86 91 99 98 90 92 71 82 98 97 93 90 89 87 89 70 58 54 58 67 70 66 68 52 59 57 65 57 80 92 83 67 68 73 71 70 76 85 97
84 85 86 80 84 81 80 81 85 91 87 98 90 93 91 92 91 97 100 95 93 84 75 56 57 55 57 65 65 73 66 67 57 54 58 58 74 73 84 74 81 89 80 76 78 99 89
86 87 93 81 85 82 80 80 82 88 78 87 95 96 92 98 89 89 91 85 80 85 60 60 56 58 62 77 72 77 68 64 62 63 65 63 85 84 79 73 84 78 74 85 84 76 89
84 86 95 85 86 80 80 80 79 83 73 82 88 99 90 95 87 88 80 82 79 78 74 71 76 74 65 73 67 81 71 66 61 62 71 69 91 91 87 71 81 89 80 79 82 77 77
85 84 94 92 87 85 80 79 78 79 78 93 88 90 98 85 88 80 81 69 73 64 75 81 71 79 84 82 72 60 55 60 59 70 78 74 92 92 97 71 80 89 80 79 72 72 62
92 85 92 88 86 89 84 78 77 77 82 85 92 98 97 93 88 78 67 72 82 75 81 86 83 78 76 64 66 67 76 74 69 74 70 84 89 93 98 78 94 61 59 60 63 61 65
90 86 92 96 80 89 88 80 74 75 76 83 88 98 97 89 93 75 68 75 70 74 86 90 87 83 80 70 82 80 84 73 85 78 74 68 83 94 98 98 72 58 52 69 72 70 63
92 90 90 98 85 88 87 78 73 72 74 77 86 99 99 98 83 84 87 69 77 77 75 84 77 77 72 84 82 70 80 78 96 97 84 80 81 93 96 97 89 59 56 62 66 83 60
91 92 85 96 84 83 86 79 71 70 74 76 82 98 99 99 84 86 80 74 71 77 88 82 78 77 73 87 91 95 87 73 88 97 99 100 100 97 81 91 80 55 49 70 79 73 60
82 94 90 92 97 79 90 74 70 71 70 73 85 98 99 98 91 82 88 89 73 75 77 82 78 82 91 90 87 90 93 87 87 77 94 94 96 91 92 98 91 49 69 70 62 62 63
89 97 91 92 95 78 88 70 81 82 74 71 89 98 98 99 93 88 80 76 84 76 82 83 84 78 78 91 92 88 78 86 86 93 77 96 81 84 83 77 53 48 50 53 60 67 63

GFSGBSN_925_rhum_051.txt.gz
RH
77 82 83 81 86 76 77 82 84 86 83 80 75 78 81 80 83 84 84 84 85 87 89 86 83 77 83 97 82 65 58 57 76 73 81 74 80 76 76 68 65 66 59 55 50 50 48
76 83 77 80 72 77 86 90 91 89 85 86 83 81 78 83 82 78 80 87 89 86 88 88 88 80 86 98 64 61 67 47 74 75 81 71 72 62 64 67 62 60 55 54 51 48 47
83 77 85 77 73 83 86 91 86 84 84 85 85 84 83 84 85 85 86 88 86 85 87 87 84 85 90 76 63 60 69 70 77 75 79 81 58 60 62 70 59 61 67 59 54 53 51
82 81 87 75 77 82 87 90 80 85 89 87 87 91 90 87 83 78 86 85 89 76 87 86 85 84 82 65 72 70 71 72 77 79 78 79 61 63 59 56 61 67 61 75 56 56 51
81 81 75 80 80 84 85 87 74 79 87 87 84 79 85 84 78 84 86 91 90 86 90 86 87 81 78 71 78 68 74 70 86 89 85 77 67 74 64 73 79 73 84 79 61 57 56
82 78 78 86 79 82 84 70 78 85 78 80 89 89 81 78 75 86 90 84 79 79 86 88 82 85 75 81 76 69 59 72 82 90 76 75 77 88 86 78 82 80 80 78 65 52 59
88 80 76 82 85 91 72 75 89 78 86 90 96 92 93 88 81 88 88 74 77 71 79 77 71 75 74 78 73 71 56 81 80 79 90 87 90 88 80 73 62 65 71 71 65 53 52
80 81 79 78 73 84 72 88 76 91 88 93 90 96 96 97 90 89 87 88 72 74 86 68 72 65 68 92 87 76 58 89 86 96 91 97 87 70 67 65 66 69 76 76 62 52 52
84 81 80 85 74 76 75 78 89 86 91 92 94 97 95 93 95 85 86 82 81 81 82 69 74 68 73 84 76 80 63 69 87 94 94 97 90 66 69 77 75 80 78 76 68 56 55
85 82 88 76 80 75 81 91 86 89 93 95 100 94 87 91 83 85 85 86 85 88 86 90 82 79 87 74 79 56 52 72 87 93 90 94 90 84 81 78 72 92 72 63 59 65 71
87 82 91 81 78 78 86 90 90 91 94 96 99 96 82 78 92 88 81 73 80 65 73 63 82 82 84 89 79 69 61 72 86 85 80 89 97 93 91 89 72 83 58 61 62 69 66
89 84 88 82 82 80 77 82 86 91 98 95 96 87 82 75 86 89 86 70 71 82 98 91 89 94 95 78 78 71 73 65 73 77 71 65 57 66 88 85 80 58 60 66 70 70 81
89 85 87 82 83 82 80 81 85 91 98 97 78 84 76 91 99 94 88 76 87 92 80 100 99 98 85 95 79 73 89 79 93 99 100 95 75 57 68 87 64 57 73 86 68 82 77
88 86 88 82 84 83 82 82 84 88 99 99 70 71 73 89 89 87 81 84 89 94 99 97 98 88 83 89 84 81 86 82 69 82 97 94 95 65 56 64 74 67 68 84 56 65 58
88 86 91 85 85 84 83 83 84 89 98 99 69 64 72 76 72 78 89 96 93 97 100 100 91 98 100 90 83 94 84 78 70 62 79 81 92 61 62 59 58 68 80 60 83 79 81
89 87 86 86 85 86 84 84 84 88 97 99 76 72 67 70 82 80 92 97 100 100 96 84 95 83 97 92 100 95 76 67 69 62 56 66 94 70 64 56 61 62 65 79 85 73 58
90 87 84 88 86 88 86 84 85 88 97 96 68 77 58 76 76 90 99 100 98 83 88 78 87 87 89 88 81 78 69 66 59 63 58 64 72 84 65 71 76 72 79 80 72 73 57
90 88 86 94 90 88 86 85 84 87 97 91 81 84 62 83 92 94 98 96 81 84 80 66 64 69 73 70 71 74 70 61 54 55 66 62 79 94 81 65 62 63 73 69 80 81 91
90 88 87 92 96 90 88 86 84 85 96 100 96 90 57 82 98 97 87 92 86 88 80 57 60 59 60 64 70 69 65 62 56 54 61 59 79 95 87 71 68 75 73 68 72 82 97
87 88 88 88 87 90 90 87 83 83 92 98 91 92 90 92 92 92 92 93 82 80 67 58 61 56 63 71 69 71 70 72 59 59 60 56 71 71 80 72 81 90 82 73 76 90 80
89 89 88 87 92 86 92 87 83 82 74 88 95 93 85 99 91 91 86 85 80 86 73 64 62 61 66 76 74 78 73 72 69 68 64 62 84 79 73 68 82 79 81 81 82 76 81
91 90 87 84 98 87 92 91 82 81 69 79 94 93 86 89 85 82 78 77 83 86 84 73 77 76 63 70 62 80 74 71 71 66 65 67 97 88 85 72 83 89 79 82 77 75 75
93 93 87 84 92 94 89 93 84 80 71 91 90 87 98 84 89 83 82 74 76 76 82 82 76 80 80 82 76 61 61 64 65 71 74 71 90 87 84 75 79 91 83 79 82 78 67
89 91 89 87 92 87 89 92 84 78 78 76 82 95 98 93 94 84 82 79 88 85 77 87 78 75 70 70 68 67 76 77 75 78 65 77 84 88 96 76 90 49 62 65 66 64 69
83 83 92 91 92 92 92 90 83 77 79 77 76 98 98 89 90 88 89 80 72 80 91 88 88 84 77 69 76 79 79 71 88 90 72 61 83 93 92 94 70 62 73 71 71 65 57
81 92 76 93 96 94 89 87 90 79 76 76 76 85 99 100 92 85 95 82 78 83 82 85 77 78 71 85 80 69 92 81 94 94 80 78 74 81 92 81 86 54 61 59 60 87 62
92 90 94 92 95 94 92 92 89 83 64 80 68 84 94 100 84 88 97 82 76 79 84 84 78 73 71 85 88 90 82 73 85 92 97 99 98 94 82 84 77 59 52 64 94 79 59
94 92 94 95 96 92 94 87 89 87 81 89 70 66 93 100 96 88 88 98 84 84 85 77 78 81 89 86 86 90 89 84 82 78 74 77 83 89 89 89 89 50 72 80 68 63 60
98 94 96 96 95 95 92 85 82 84 86 84 78 65 80 100 94 98 94 87 81 82 84 84 76 78 83 92 90 90 87 91 86 94 79 90 80 88 78 71 54 52 51 52 59 67 59

GFSGBSN_925_rhum_054.txt.gz
RH
81 82 74 87 80 71 81 92 88 88 80 82 87 88 85 82 83 82 77 79 82 83 84 86 87 89 83 65 63 71 71 68 81 77 63 62 66 72 65 56 51 47 43 37 34 40 41
83 85 85 88 82 83 80 91 88 87 79 88 90 89 87 87 87 86 85 84 88 87 86 86 88 80 73 82 54 60 70 67 65 75 64 61 56 53 54 56 53 42 42 40 35 41 40
78 89 74 85 78 81 81 84 82 74 77 86 88 89 90 88 92 87 84 84 87 87 86 86 86 81 71 59 63 76 70 66 66 67 60 64 52 53 51 56 47 48 51 40 44 38 36
84 76 78 82 78 80 85 72 73 82 87 84 86 89 90 90 86 87 84 83 84 81 85 87 87 83 67 53 56 75 74 64 65 64 62 70 58 47 48 45 50 51 44 53 33 39 41
87 83 80 76 86 80 76 74 90 82 85 89 92 94 96 90 85 79 82 87 90 90 89 85 82 67 55 64 75 67 76 63 67 68 74 71 65 52 54 57 59 48 42 41 47 42 34
80 83 78 84 85 78 75 83 76 86 88 92 86 89 93 82 85 80 89 80 90 78 86 81 72 70 49 61 63 76 81 72 78 65 82 80 83 73 56 53 52 51 46 46 39 45 48
85 84 80 88 74 75 74 76 90 86 92 93 88 94 94 96 83 85 87 77 58 65 70 55 53 60 61 82 80 87 71 89 71 74 93 76 97 81 60 45 40 39 46 40 43 44 44
84 81 83 80 80 75 84 89 87 91 93 93 92 94 96 87 82 86 85 66 64 73 64 55 56 57 56 86 91 92 71 95 69 80 76 88 95 52 47 50 50 46 43 43 54 46 45
86 82 84 80 78 79 76 85 86 91 94 95 92 93 93 86 82 83 81 82 80 79 68 58 62 62 72 81 73 79 61 92 74 85 86 95 78 54 53 56 55 53 48 53 48 48 44
88 84 87 82 80 82 79 82 86 91 96 98 95 95 87 81 77 82 85 85 86 84 81 64 89 86 90 93 72 60 74 88 92 96 86 95 75 59 58 56 47 64 56 54 54 54 49
88 85 90 86 86 82 82 82 86 92 94 99 94 84 80 76 84 79 84 68 85 70 87 76 93 83 78 78 69 66 76 90 85 93 94 96 89 85 65 56 49 66 55 52 51 53 55
86 85 91 86 87 82 84 83 85 88 95 100 95 72 66 81 88 98 86 73 71 87 90 90 82 94 90 71 68 63 64 68 72 74 73 93 89 86 90 92 61 50 51 52 53 56 71
88 88 89 91 86 85 85 84 85 88 92 99 97 78 68 81 83 87 81 75 91 84 76 89 96 95 74 76 67 64 84 78 92 96 100 96 83 86 85 96 76 52 61 85 79 86 60
90 86 87 92 86 86 86 84 85 87 91 99 92 67 72 72 76 80 82 84 83 91 99 82 96 80 93 87 75 90 96 71 62 80 100 99 97 82 83 76 75 73 62 68 59 53 43
91 87 85 90 83 90 84 85 85 86 92 97 76 62 75 79 79 84 78 94 96 96 98 100 90 90 100 76 80 92 78 68 58 61 76 96 96 56 53 50 52 62 74 49 62 61 59
92 87 88 87 92 86 87 86 84 86 92 97 89 78 70 70 83 80 88 98 100 97 92 82 84 67 77 77 85 92 65 58 59 53 48 59 92 62 57 50 50 53 47 69 78 65 49
92 89 88 88 94 93 90 88 86 86 93 94 78 65 59 78 75 75 100 100 96 75 80 70 67 69 67 71 71 62 62 58 51 52 46 51 59 80 59 64 61 58 61 59 50 51 34
92 90 88 89 89 85 91 89 87 85 95 89 86 91 63 76 88 83 86 85 74 75 73 67 55 59 58 60 60 57 57 54 49 45 50 54 60 80 75 57 54 52 53 46 60 67 66
92 89 89 86 93 83 91 91 87 85 93 99 95 79 62 91 95 87 78 82 77 72 64 54 54 52 52 54 60 56 55 56 50 48 49 50 67 85 84 66 61 67 59 52 57 70 80
92 91 90 89 95 86 92 92 87 85 88 96 84 89 71 74 78 77 81 81 71 69 62 52 53 48 50 54 53 60 60 61 54 55 59 47 58 62 60 72 69 86 68 57 76 85 54
90 91 90 87 88 94 92 92 88 83 76 90 82 89 79 94 78 76 74 73 71 67 62 54 51 50 49 55 58 60 63 61 58 60 53 51 89 72 61 62 78 71 69 67 82 64 76
86 93 93 89 82 94 91 92 88 82 60 78 86 94 80 79 74 72 73 72 73 74 77 58 54 60 54 52 48 58 58 56 55 56 53 56 92 81 78 63 68 78 62 64 62 57 58
87 91 92 89 85 93 87 92 87 83 64 84 84 88 96 78 73 69 70 67 69 73 76 67 60 58 60 64 63 50 49 46 49 54 57 58 75 77 74 66 66 73 62 60 59 57 55
83 78 78 89 92 90 94 92 91 80 75 77 82 92 97 83 77 72 75 73 79 70 68 75 66 59 60 53 50 48 50 52 52 57 50 60 66 70 75 67 80 50 51 50 54 53 52
78 70 74 77 91 96 95 88 92 84 78 76 81 98 94 96 79 72 83 76 70 75 77 78 80 72 58 62 59 62 68 60 68 67 56 48 60 79 79 72 56 51 61 61 61 55 44
87 96 85 84 94 96 92 90 93 88 84 72 70 72 97 98 71 77 83 82 68 69 72 79 74 70 64 68 66 65 71 65 75 79 68 63 55 64 79 77 59 57 60 53 50 90 53
96 96 96 97 94 96 94 94 87 91 90 85 78 73 89 98 70 87 96 86 67 66 67 72 70 72 65 70 72 67 64 58 75 76 81 78 79 78 68 67 53 41 42 56 96 81 56
96 92 96 88 96 94 94 89 85 90 85 90 85 69 79 90 82 70 70 96 83 72 67 72 68 71 74 74 73 72 69 66 66 63 63 64 69 79 71 73 74 43 62 74 67 52 53
89 86 92 94 96 96 94 86 89 92 86 88 92 80 74 85 82 87 91 79 92 83 83 74 62 65 62 72 72 74 72 74 65 70 63 67 54 58 54 51 42 48 52 50 54 58 57

GFSGBSN_925_rhum_057.txt.gz
RH
84 85 77 79 77 78 78 81 87 79 76 78 82 87 89 86 87 88 87 84 83 82 86 87 88 89 75 67 50 45 74 70 82 79 51 51 47 57 59 49 40 40 28 25 29 37 35
82 85 77 81 78 76 84 85 75 80 85 85 87 86 90 90 88 88 90 86 85 86 84 77 81 77 65 71 37 36 61 76 84 76 48 44 43 44 49 49 41 36 35 32 29 36 37
86 86 79 76 80 81 81 75 82 83 82 87 90 90 92 95 91 87 90 85 83 85 85 87 85 76 62 52 40 66 69 75 66 84 48 42 39 42 44 53 40 39 42 36 32 32 36
84 81 80 80 85 74 74 80 79 80 88 88 88 90 85 94 95 87 88 79 86 85 90 88 87 73 67 43 44 45 71 85 72 70 49 43 47 38 45 41 47 48 42 51 34 35 31
84 85 80 84 77 76 75 82 83 87 88 88 91 86 91 94 82 88 80 83 86 89 88 85 81 66 52 46 43 46 66 75 59 78 48 49 59 48 48 55 59 50 47 39 31 28 34
85 84 82 86 78 76 74 86 86 86 87 90 87 92 94 95 82 86 82 82 80 76 75 72 70 66 44 40 44 58 64 64 64 63 61 76 77 76 58 53 60 48 42 28 28 39 32
89 84 82 85 81 80 77 80 88 88 90 92 88 93 96 80 84 84 79 66 59 67 58 52 50 46 52 66 76 60 72 67 72 59 76 88 93 92 56 37 29 26 31 24 25 37 38
88 83 88 84 83 80 80 79 87 90 93 94 92 94 96 78 87 71 72 53 61 70 65 44 46 45 45 88 88 87 68 58 86 68 56 95 96 64 41 34 33 36 32 32 34 38 38
91 84 88 88 86 83 81 81 83 90 93 97 98 94 91 81 70 67 66 73 74 72 72 52 53 55 64 90 95 81 69 72 75 56 69 71 75 71 73 46 42 37 40 33 39 45 38
85 84 89 88 84 86 83 83 82 85 91 94 98 94 89 72 84 71 64 81 84 71 88 66 82 79 91 88 88 76 83 92 75 70 76 82 62 80 76 53 39 43 31 34 47 46 36
89 86 88 94 85 86 85 84 82 84 87 95 99 97 78 82 69 64 76 76 78 71 92 81 90 82 84 93 87 87 85 88 87 94 86 94 78 89 61 51 38 39 44 47 48 48 48
90 86 88 92 87 88 86 84 84 84 86 91 99 94 82 76 72 80 79 73 71 97 94 100 92 96 90 76 78 92 88 70 62 84 85 93 87 89 65 68 47 49 49 49 48 51 68
90 87 88 90 87 86 87 85 85 84 86 93 99 90 81 78 62 84 82 73 96 90 92 100 99 81 56 65 76 85 92 91 93 100 100 99 98 89 78 82 62 52 60 88 88 86 59
92 87 87 85 94 89 89 90 86 86 87 94 97 72 76 73 78 81 73 89 89 84 100 87 94 70 91 73 74 74 77 74 58 69 99 100 100 98 91 84 92 74 58 67 64 64 50
93 89 90 88 95 92 90 91 87 87 87 94 85 68 72 73 86 86 81 96 91 95 96 99 63 84 77 60 73 83 63 60 57 54 89 95 99 93 86 82 71 88 76 46 48 44 44
93 91 89 88 93 92 90 91 88 87 88 96 82 64 59 77 89 74 86 93 96 86 80 70 69 58 60 60 63 65 52 49 55 46 42 60 94 69 68 67 59 64 46 69 78 64 43
93 90 90 90 92 93 89 92 89 86 90 89 71 56 68 84 83 62 99 92 87 64 67 65 54 55 52 53 49 49 51 52 44 44 40 45 53 80 55 59 56 54 57 51 49 45 35
91 90 91 90 94 90 89 92 90 87 88 88 76 90 70 81 77 64 69 68 72 61 60 61 48 46 46 47 50 46 50 46 42 38 44 47 54 77 70 50 47 46 45 42 63 58 53
89 91 90 90 91 96 90 91 90 86 86 99 87 61 70 82 86 74 69 67 62 56 52 48 48 46 44 45 53 46 46 50 44 42 43 42 62 83 78 58 53 60 49 43 47 71 78
91 89 92 90 88 95 94 91 89 84 81 92 66 87 65 55 61 60 62 68 58 61 50 46 45 42 44 45 42 52 53 52 48 46 57 41 50 60 61 78 61 76 58 51 76 85 47
89 91 94 92 89 91 96 91 88 71 61 83 61 79 77 85 62 63 59 56 53 53 48 44 45 43 42 48 46 48 50 54 51 55 46 44 88 69 55 53 79 70 63 61 91 61 74
90 89 90 89 86 92 95 94 91 71 59 59 77 90 73 76 61 62 62 53 56 57 56 48 47 45 41 42 41 47 47 44 45 48 45 50 87 76 80 54 58 72 55 56 58 54 48
85 84 80 84 90 93 94 93 94 77 64 57 61 74 93 74 60 60 62 58 57 59 61 56 44 44 44 53 48 39 38 36 39 44 48 52 68 76 69 58 58 67 54 52 52 48 48
84 78 73 82 85 93 96 91 93 85 73 66 67 90 96 74 68 64 64 63 65 60 62 58 53 48 53 42 38 38 39 42 43 46 40 53 58 59 68 60 79 57 44 41 46 44 43
82 86 90 81 81 88 96 95 96 92 82 69 75 82 88 81 60 62 68 72 62 63 64 63 66 47 45 50 53 56 57 53 56 51 46 41 48 64 70 61 48 39 50 54 54 51 40
79 91 96 95 96 93 95 94 93 87 92 73 76 79 79 89 58 72 76 77 76 60 66 71 65 57 59 57 58 66 66 53 61 69 55 52 47 60 66 72 59 57 53 42 44 68 40
92 96 88 82 95 95 95 95 91 85 91 83 76 83 68 79 51 75 90 97 72 61 65 65 65 68 59 66 75 67 58 47 63 59 70 67 66 72 63 65 48 36 52 50 88 85 51
86 95 84 87 88 96 96 95 85 83 88 85 77 88 75 72 59 56 59 90 97 75 71 62 66 65 68 74 69 60 57 51 52 47 52 60 63 63 59 72 71 36 44 66 67 52 52
86 88 85 88 92 84 96 95 96 88 89 89 84 91 92 96 64 56 60 73 91 84 94 67 60 52 50 61 63 62 64 58 48 59 48 57 45 50 47 49 41 45 51 51 51 54 57

GFSGBSN_925_rhum_060.txt.gz
RH
85 84 82 78 78 85 74 81 78 81 79 82 86 87 90 92 92 90 90 88 87 82 82 86 88 87 83 74 65 46 46 47 74 86 62 66 49 63 68 55 45 48 36 30 28 39 36
85 82 82 80 84 75 76 76 80 79 88 87 86 87 90 90 91 95 93 88 88 85 82 81 70 72 76 77 44 40 46 68 69 76 70 52 44 46 51 48 49 40 38 33 32 40 36
84 84 83 82 80 79 74 80 91 88 85 85 86 87 88 89 93 93 95 88 86 83 87 88 87 77 68 60 40 69 54 59 84 76 68 46 40 41 48 56 44 38 44 44 34 40 40
86 84 84 83 80 78 78 77 84 86 85 87 91 86 88 90 95 84 86 86 80 87 86 89 79 75 73 49 48 44 50 62 66 83 75 45 39 40 47 45 54 49 47 59 38 38 38
87 85 85 85 82 79 79 78 87 89 87 88 89 91 91 94 91 78 86 80 86 87 89 87 83 75 63 39 44 42 40 58 69 82 75 53 45 59 49 64 74 64 62 57 46 34 36
88 85 86 88 85 83 80 78 84 88 87 90 92 91 94 94 77 78 64 66 80 75 77 67 72 76 55 43 58 45 50 62 83 78 82 71 71 80 68 76 86 69 73 46 46 37 37
89 87 87 88 88 84 82 80 80 86 91 90 92 94 95 93 80 61 78 76 67 72 56 57 55 56 48 57 66 57 71 75 78 91 88 68 85 87 74 59 45 41 48 49 34 36 39
89 88 88 91 85 84 83 82 81 81 88 95 93 96 92 89 67 69 72 53 68 70 70 44 42 42 50 71 82 62 75 92 96 92 69 85 89 64 54 48 45 36 39 42 30 40 42
89 85 88 91 90 86 84 84 82 82 83 90 97 98 95 81 71 71 58 71 80 71 73 52 53 56 68 76 86 78 80 85 96 89 73 79 66 57 57 50 46 40 44 36 41 44 39
90 88 89 89 92 87 86 84 84 83 85 86 93 100 96 74 80 64 61 72 77 68 98 77 78 93 84 84 86 86 75 79 92 67 62 85 71 71 80 69 42 48 34 33 46 55 57
92 89 88 89 90 88 89 89 86 85 86 89 93 100 93 73 82 61 72 71 72 77 94 81 89 85 87 96 86 88 80 77 86 85 78 93 86 80 94 73 44 40 36 48 51 56 52
91 89 88 89 91 94 92 92 91 87 88 90 94 99 82 74 79 74 77 77 77 100 96 100 93 93 96 86 80 78 83 83 61 82 82 94 75 80 82 82 76 44 53 53 50 57 88
93 89 90 91 90 96 88 88 89 87 88 91 97 100 83 79 70 75 76 81 100 94 90 99 100 94 94 88 87 86 93 86 89 97 100 97 96 87 91 87 63 56 67 86 94 96 84
94 92 91 91 90 92 91 89 89 89 89 89 80 80 77 72 76 77 81 98 90 82 100 93 84 70 86 86 95 90 83 83 71 81 99 99 100 97 93 82 82 64 65 89 73 92 70
94 92 90 91 91 94 91 90 89 87 86 82 75 70 70 72 83 79 91 94 87 90 93 98 65 70 76 63 70 86 74 70 80 80 99 100 100 94 90 78 76 86 96 48 64 42 78
95 92 91 90 90 95 93 90 91 88 83 78 96 64 58 70 84 86 93 87 99 83 74 70 65 51 64 61 63 67 60 50 55 46 47 68 98 96 92 79 78 78 57 73 94 70 66
94 91 90 90 92 94 94 92 91 89 76 76 89 66 71 80 84 86 95 85 84 60 60 71 53 50 49 52 46 49 54 51 41 45 42 53 71 98 92 97 98 93 96 64 62 57 65
92 89 89 90 92 94 95 93 91 88 83 86 78 82 66 81 93 76 71 62 73 57 56 61 51 42 44 44 46 48 56 52 41 39 50 50 67 94 73 51 52 62 55 62 94 72 71
94 89 92 93 93 90 95 94 91 86 84 96 83 68 64 80 83 71 67 61 58 53 50 49 48 47 45 44 54 48 56 49 44 49 51 48 74 93 78 63 53 62 52 48 65 82 86
91 89 91 93 91 90 95 94 93 84 80 90 76 89 78 70 60 66 62 68 60 61 50 44 44 42 43 45 43 52 58 52 49 49 52 46 56 73 87 82 74 82 63 56 84 92 71
91 88 89 85 87 91 93 94 94 68 61 76 64 84 78 93 73 66 58 52 52 53 50 43 45 43 42 49 46 48 55 58 52 51 47 55 84 78 58 65 94 80 67 66 90 74 74
90 86 83 84 89 92 96 95 94 69 53 54 70 88 77 74 67 64 63 51 54 51 55 47 48 42 39 47 50 50 49 51 52 50 48 56 86 82 86 54 64 76 62 64 65 64 60
88 78 88 91 93 93 95 94 94 81 65 54 59 66 90 68 66 60 75 64 64 59 58 53 56 45 44 58 47 40 42 39 42 51 53 62 82 88 86 58 60 80 62 59 62 56 58
80 79 90 93 96 95 94 94 95 93 72 67 69 80 85 75 69 75 65 61 64 61 67 56 55 54 54 43 40 37 41 43 43 46 44 57 66 74 89 70 93 62 46 46 53 52 49
79 85 90 95 96 95 95 95 95 92 84 75 68 72 74 78 54 51 70 67 66 56 69 62 66 48 45 49 54 56 62 53 57 47 48 46 58 72 89 88 60 58 52 54 55 56 46
84 79 95 83 90 94 95 96 94 82 90 78 72 76 69 85 64 51 76 72 84 77 72 74 63 57 59 67 71 76 78 56 66 74 53 52 51 70 79 84 78 68 51 41 43 74 44
77 76 89 84 85 89 95 97 90 86 81 86 79 80 71 73 53 56 79 96 93 82 87 71 74 75 64 74 84 84 68 45 66 68 80 72 68 83 73 79 64 60 55 47 84 86 57
73 76 91 86 87 84 97 94 93 90 86 88 80 79 84 82 66 55 52 68 79 94 97 81 74 71 76 80 81 72 68 59 55 46 57 68 76 76 72 82 84 45 47 68 71 59 57
76 79 84 85 83 83 94 96 96 85 86 92 88 79 88 93 76 65 67 60 56 72 99 87 88 63 66 73 73 71 71 65 59 66 48 64 54 56 58 64 48 45 65 57 57 64 65

GFSGBSN_925_rhum_063.txt.gz
RH
86 86 86 83 84 78 76 75 83 91 82 83 83 88 85 88 86 90 92 81 87 89 87 84 79 70 70 81 70 43 50 55 53 72 76 72 67 80 86 73 55 62 44 39 37 39 36
88 86 85 84 80 81 79 75 82 87 86 86 84 86 86 87 87 92 92 78 88 89 84 74 81 73 80 91 48 44 47 47 55 76 73 73 57 58 70 65 62 49 47 43 40 44 36
89 87 87 85 87 82 81 76 86 84 86 86 86 84 88 87 92 94 89 86 90 88 80 87 87 80 74 68 49 54 59 55 64 70 71 68 57 53 54 58 50 47 54 46 47 45 42
89 88 87 85 84 84 83 80 78 89 87 88 87 88 89 93 89 76 81 84 84 85 86 86 86 84 78 47 48 47 50 53 63 86 82 63 56 45 58 54 59 55 54 70 46 46 42
91 90 88 88 86 88 86 81 81 82 88 89 92 93 92 92 89 86 75 76 82 87 88 89 84 82 74 46 51 43 44 45 69 77 83 71 59 58 56 72 86 79 77 72 50 43 46
91 91 89 92 90 87 81 82 82 78 86 90 95 95 92 92 87 73 71 74 74 78 73 78 78 84 65 56 55 48 46 56 74 87 87 89 75 80 76 88 86 88 74 66 59 46 44
91 90 90 88 91 88 83 82 82 83 79 87 93 96 96 91 73 70 62 72 75 81 65 69 65 60 52 59 60 59 69 62 73 94 97 77 88 90 71 69 57 68 61 55 51 39 44
92 91 90 89 92 90 90 91 85 84 84 83 90 96 99 94 72 66 61 72 77 77 90 56 55 45 76 70 77 68 67 67 85 97 90 93 89 70 62 62 63 53 62 60 41 39 42
93 91 90 91 88 90 90 91 94 90 86 87 87 94 100 89 66 64 72 80 69 73 86 60 58 75 84 77 71 81 70 79 95 99 85 85 71 62 65 65 66 61 52 52 48 46 43
95 93 91 92 87 92 91 93 94 90 88 90 89 94 99 91 77 67 72 72 74 74 100 99 94 90 86 79 85 78 75 79 95 93 83 82 68 69 69 65 59 70 40 39 53 58 66
94 92 92 93 92 91 90 91 91 88 90 91 93 96 98 94 83 72 68 72 70 79 96 90 89 78 81 88 86 90 90 91 96 86 75 96 84 87 82 70 63 54 37 54 55 57 56
96 92 92 94 93 88 94 88 86 90 91 91 93 100 98 79 80 74 76 75 81 95 96 99 93 96 96 89 88 78 87 93 71 82 82 95 76 82 78 79 81 72 55 60 62 67 90
94 94 94 94 93 91 93 91 90 90 91 88 76 100 97 84 79 73 73 84 89 96 78 99 100 87 87 86 82 80 90 87 89 95 98 98 96 85 84 79 78 75 69 95 93 94 89
93 94 93 94 93 92 94 91 90 89 90 81 63 78 67 69 74 74 80 92 91 82 99 80 87 77 92 91 94 88 85 94 78 86 94 88 100 97 89 88 92 83 62 87 85 98 85
95 94 93 92 92 93 93 92 90 90 89 60 74 76 71 73 79 78 94 95 84 92 86 92 75 80 77 80 89 83 80 90 80 82 91 90 94 91 88 89 84 91 86 56 67 55 83
91 94 91 89 92 93 94 93 90 90 82 60 90 84 69 78 74 83 92 93 98 87 77 76 90 65 67 71 79 83 65 63 81 77 73 86 97 93 91 92 81 83 63 73 90 62 76
89 92 89 89 92 92 94 94 91 90 84 66 90 89 71 78 85 93 92 86 86 70 71 74 70 53 53 56 54 60 66 52 48 53 56 67 78 99 94 98 96 84 88 72 70 70 66
90 91 92 91 91 91 94 93 93 90 88 85 85 91 70 83 94 90 86 72 64 60 64 71 59 54 47 48 58 66 68 59 46 44 59 56 77 99 99 77 74 82 79 66 87 76 74
90 91 91 90 90 93 94 94 92 85 87 91 95 93 69 80 79 77 72 70 69 60 55 54 52 50 47 50 59 58 66 53 53 56 53 53 80 96 96 73 69 94 82 71 64 82 84
86 90 88 83 91 93 96 94 88 51 58 75 95 93 88 77 76 76 72 69 77 63 58 47 47 46 46 48 49 61 65 56 51 49 53 50 67 73 83 73 75 83 73 60 72 84 68
86 83 86 89 93 93 95 92 90 50 52 66 90 86 80 97 79 85 77 62 62 65 58 46 50 47 48 54 52 67 63 61 53 46 49 62 80 74 66 78 86 76 69 73 80 66 72
79 74 89 94 94 94 94 83 94 59 48 56 87 89 89 73 71 83 72 66 64 61 58 59 57 45 52 66 58 57 60 61 62 51 53 64 90 78 84 65 70 69 68 70 68 64 66
76 78 90 96 96 95 95 90 93 80 61 66 72 72 86 79 72 80 84 70 68 69 59 55 62 61 61 59 49 45 48 51 55 60 63 71 83 91 88 61 65 74 69 71 69 65 60
75 77 84 89 93 88 95 96 95 95 71 71 72 78 81 93 72 64 57 66 68 69 77 62 70 60 56 47 43 46 49 50 51 51 54 73 74 84 91 76 92 46 48 53 60 60 60
76 78 85 91 87 87 87 96 96 87 72 74 75 76 79 94 78 66 61 73 72 70 77 68 71 56 62 52 64 65 67 59 58 59 52 57 72 82 91 94 60 64 54 56 64 63 55
74 73 84 90 82 82 90 94 87 91 81 70 77 74 78 83 77 65 77 78 85 89 83 81 65 65 66 77 76 83 90 67 76 73 59 58 60 76 87 92 88 66 51 43 52 82 53
75 76 80 92 84 77 79 92 86 81 84 82 74 80 83 82 69 64 79 81 91 99 97 82 78 75 67 85 89 90 76 52 77 75 82 77 73 84 70 89 70 57 55 48 84 73 56
73 76 82 89 84 76 86 95 96 92 86 87 77 76 84 94 87 67 59 72 75 82 100 96 87 77 84 87 90 83 80 66 62 59 71 72 75 78 76 86 86 57 51 74 72 61 65
75 79 84 83 82 76 88 95 97 87 91 93 95 78 85 96 87 62 68 66 67 63 79 100 98 86 85 81 83 79 78 76 71 77 54 67 61 55 70 72 52 48 60 59 63 64 64

GFSGBSN_925_rhum_066.txt.gz
RH
89 86 85 87 87 82 83 79 82 86 86 87 84 84 83 84 86 84 91 91 78 84 90 76 85 81 74 83 82 47 57 50 50 66 75 84 74 68 87 77 68 71 52 47 45 60 67
90 87 85 87 89 85 86 82 75 86 86 90 88 88 84 90 91 93 94 88 80 83 88 73 75 69 74 93 49 56 58 60 55 64 70 79 78 68 73 71 70 61 55 46 56 47 51
91 90 87 88 85 87 82 84 81 76 89 88 88 89 88 89 90 92 91 89 89 85 79 88 88 73 79 73 50 56 59 59 64 59 75 75 69 66 66 67 59 51 62 60 57 47 45
92 91 88 90 89 87 85 79 82 80 81 91 88 93 91 88 89 87 84 84 85 84 84 86 84 86 83 49 53 52 55 52 55 68 74 69 74 54 61 59 71 69 62 81 51 49 44
93 92 89 85 90 83 83 82 80 81 79 86 93 91 95 92 92 88 88 85 84 83 88 90 84 82 76 49 55 52 55 49 64 78 85 82 79 68 64 74 88 85 83 75 58 48 48
93 92 90 86 91 90 92 90 94 86 81 80 88 93 96 95 76 94 92 71 80 82 84 82 80 84 61 59 52 54 45 53 73 84 96 96 90 85 78 87 89 78 76 70 60 51 52
95 93 90 88 86 91 91 92 93 95 89 86 84 92 95 97 72 69 66 76 71 74 66 77 71 65 56 56 53 66 53 62 75 87 96 94 92 88 78 70 64 67 62 65 56 45 50
95 94 92 91 87 86 89 90 94 92 94 86 86 87 96 96 89 69 61 79 78 72 81 62 60 61 70 76 74 81 60 74 85 98 94 99 89 68 68 67 64 66 66 65 46 44 47
96 95 93 92 90 88 90 93 85 83 88 88 89 91 96 97 78 72 68 73 71 75 86 78 75 79 84 79 63 88 68 74 91 98 97 87 77 64 66 74 76 67 68 63 52 48 43
90 96 94 94 92 92 94 89 85 89 89 92 90 89 99 97 82 77 74 72 75 72 95 99 94 81 81 76 87 74 75 78 92 96 96 82 69 71 76 77 68 75 48 49 52 60 74
86 96 95 94 93 93 86 92 90 90 92 93 92 93 98 99 90 76 67 72 76 79 96 94 91 78 86 92 85 87 76 81 91 93 97 97 80 79 81 72 56 60 43 50 58 63 57
80 96 96 94 94 94 88 96 88 90 93 94 93 99 98 87 92 75 74 77 82 92 95 99 91 95 91 84 85 82 87 88 76 92 85 92 80 84 79 84 74 71 58 63 66 70 88
78 94 96 94 93 94 92 94 90 91 92 90 72 88 98 86 80 73 73 84 89 94 79 98 100 87 92 100 94 88 94 96 96 99 99 96 94 86 83 78 71 69 69 96 94 98 91
80 90 95 93 93 94 93 89 91 92 92 79 62 69 65 65 77 76 77 89 88 77 96 80 87 88 97 90 92 92 96 98 81 79 95 92 98 95 86 84 86 82 62 88 87 94 82
83 92 94 91 93 94 93 91 92 92 88 86 75 75 71 72 78 79 82 95 84 88 83 92 76 85 100 90 91 90 79 91 84 78 86 94 98 90 85 82 86 94 93 60 69 69 86
78 91 92 92 91 93 94 93 93 92 88 86 84 80 72 78 82 84 91 94 95 82 79 83 87 62 91 93 84 79 74 73 81 76 67 82 98 85 87 84 86 92 66 74 89 71 81
76 90 93 91 92 94 95 94 93 91 87 76 85 86 75 79 83 89 93 90 86 75 76 77 77 59 57 61 72 69 69 55 58 74 68 76 78 94 91 97 98 96 86 73 69 69 70
76 90 93 91 86 94 96 94 91 91 90 75 84 91 76 86 93 92 85 74 64 63 69 77 75 59 53 54 61 73 71 61 51 53 77 66 82 96 90 82 77 82 80 65 87 75 76
76 86 90 89 95 95 95 86 76 86 87 89 97 94 76 87 92 87 76 72 74 64 62 60 58 52 49 51 65 68 66 55 54 53 61 60 85 97 97 82 82 97 88 78 71 81 86
73 77 88 94 95 94 93 81 61 54 55 75 90 91 83 75 75 82 88 76 79 62 64 50 52 47 49 52 55 67 65 58 52 48 54 54 72 73 84 70 81 88 91 78 80 89 82
71 70 88 95 96 95 88 91 57 50 44 63 92 91 83 97 86 81 81 74 63 72 62 49 54 49 52 54 57 69 66 62 54 47 55 57 80 75 72 78 82 74 86 78 82 75 82
65 72 89 95 95 95 94 84 68 50 47 60 91 93 87 88 76 86 76 77 75 72 62 63 60 70 54 60 54 68 64 66 63 52 57 69 89 76 82 70 64 65 72 74 68 61 63
65 74 87 91 91 95 93 93 88 62 51 72 77 72 86 80 69 80 76 68 72 73 62 57 63 66 61 58 50 47 51 55 52 60 67 69 85 87 82 65 66 73 69 71 69 65 58
68 73 84 87 83 88 95 94 94 72 67 70 76 84 90 82 80 67 61 63 74 72 81 68 68 62 55 48 46 47 54 55 56 56 60 76 75 84 94 72 78 44 50 54 63 64 62
67 75 84 90 77 76 84 88 97 90 72 72 77 74 89 92 88 75 72 66 68 69 76 74 70 59 71 56 68 72 76 62 60 62 58 63 78 85 92 94 65 58 56 62 68 64 62
69 76 83 90 79 73 76 92 94 90 86 71 80 77 82 89 83 71 78 83 91 98 91 78 67 67 66 79 77 84 93 74 83 75 62 62 67 76 92 92 90 60 53 47 52 79 57
70 78 82 90 80 77 74 86 92 91 86 87 75 79 82 91 76 66 74 76 69 96 96 93 95 76 67 87 90 96 80 60 85 82 82 74 74 82 83 91 77 52 55 51 81 69 60
78 79 80 87 81 75 75 88 88 94 92 88 76 81 79 95 89 74 65 73 83 76 86 98 94 88 86 86 91 89 84 72 69 68 77 79 83 82 76 82 88 57 56 71 69 64 64
80 78 79 79 76 75 82 94 94 92 97 98 82 81 84 93 84 72 69 67 60 58 77 88 100 99 96 85 87 83 84 82 75 79 59 72 60 68 71 72 50 53 53 57 64 63 62

GFSGBSN_925_rhum_069.txt.gz
RH
90 87 83 86 87 87 89 86 80 76 86 91 93 86 82 86 86 91 94 94 80 73 76 75 68 76 74 86 83 50 57 61 63 52 70 78 83 88 78 85 75 64 58 50 75 87 84
91 88 82 81 85 87 87 77 82 79 80 90 92 89 94 82 86 87 92 91 85 86 85 68 70 73 74 94 52 60 50 50 56 66 70 74 75 69 79 79 79 70 55 68 72 82 62
92 90 87 89 89 87 86 83 82 80 77 84 89 90 90 91 86 85 83 87 90 90 82 88 84 70 78 71 51 52 53 49 56 66 70 74 78 68 70 71 63 61 75 70 66 63 70
93 92 90 85 93 81 85 85 91 87 80 76 87 87 92 95 92 92 92 84 84 87 89 88 88 86 84 47 54 54 58 54 59 69 64 74 78 63 66 62 74 64 72 86 65 60 60
93 93 91 88 83 90 90 85 90 89 94 81 79 88 90 95 94 87 96 96 85 85 88 90 83 82 74 52 62 56 61 65 71 73 70 73 84 71 68 86 87 76 88 77 65 55 50
95 95 92 89 87 83 90 86 90 91 90 87 78 87 92 95 96 89 88 67 74 86 88 86 82 84 58 59 54 54 56 66 75 76 81 87 98 85 85 91 82 85 87 68 63 57 50
95 96 93 91 88 88 88 90 89 85 91 89 86 84 92 96 97 86 73 81 72 76 69 78 73 69 60 57 53 56 59 64 70 79 94 95 97 81 80 82 68 66 69 67 56 47 55
95 96 94 93 91 87 85 85 84 87 89 86 90 89 89 97 97 81 64 79 72 68 74 62 64 66 72 76 70 69 60 76 83 100 89 99 97 64 71 70 66 68 68 68 52 50 53
76 97 95 93 93 90 90 89 91 89 87 92 92 91 92 97 95 74 66 70 71 78 88 77 78 82 81 74 62 76 69 74 89 100 99 97 86 67 70 77 75 72 70 66 59 50 46
64 97 96 95 94 92 89 83 95 89 90 94 94 92 96 98 89 79 75 74 74 72 98 99 88 85 78 74 75 72 74 77 90 99 97 92 68 73 80 82 73 77 54 53 58 59 73
63 95 96 96 95 93 93 89 93 91 92 94 94 96 98 98 83 80 66 72 77 78 95 96 93 80 83 92 84 79 72 77 91 98 99 97 79 81 82 77 60 64 51 53 55 61 58
60 81 97 96 95 94 94 92 86 92 92 93 94 100 99 88 94 77 73 76 81 86 96 100 90 93 97 86 87 76 78 85 83 93 92 91 85 79 79 81 60 63 60 64 72 70 89
58 69 95 96 95 94 93 94 92 92 93 93 96 94 99 88 81 73 78 81 88 92 79 95 100 95 90 97 91 90 88 96 97 99 100 90 94 88 79 80 73 63 70 96 96 96 92
58 66 87 96 94 94 94 94 93 93 94 90 84 75 77 71 78 73 77 84 88 80 94 77 94 88 96 92 96 94 97 96 86 96 100 99 99 93 88 78 80 72 64 89 86 96 85
60 65 78 94 94 94 94 94 94 94 90 86 74 79 81 77 80 79 81 91 78 83 80 88 83 100 89 83 94 93 97 97 80 84 82 93 100 88 87 84 81 86 88 58 75 75 88
63 70 86 93 93 93 95 95 93 94 89 79 81 80 79 81 82 83 91 91 90 77 78 80 89 64 98 95 89 86 87 80 84 78 65 76 98 86 91 75 82 86 75 78 89 81 89
63 77 86 94 90 96 96 95 94 93 91 70 78 86 83 86 87 86 92 92 84 76 74 83 81 67 64 85 80 73 70 64 68 82 69 74 78 93 91 94 82 97 93 78 74 69 72
68 76 75 90 88 96 96 87 94 93 91 65 85 92 80 90 94 94 85 73 65 67 76 79 78 69 58 56 68 73 70 64 57 69 78 67 80 91 95 80 74 80 84 74 89 79 82
70 68 81 88 91 95 89 65 81 93 76 78 94 94 70 88 94 91 76 73 72 66 66 64 62 54 51 54 68 69 67 55 53 59 69 68 84 97 97 83 83 98 88 75 74 79 87
67 63 83 89 86 88 81 57 61 90 47 77 90 85 82 83 79 84 92 77 77 65 64 53 54 49 50 56 65 69 67 59 50 51 56 55 77 74 83 70 82 99 96 87 77 89 84
64 64 85 93 83 78 84 70 57 64 44 60 92 96 88 95 83 80 82 80 71 69 61 54 54 60 54 57 60 71 67 62 54 50 62 57 81 77 74 76 79 80 83 86 93 73 80
65 72 86 86 78 74 79 71 59 54 40 68 87 80 88 87 83 83 76 79 83 80 70 67 64 72 59 55 53 68 67 66 59 54 61 69 87 75 79 70 66 69 74 88 85 79 79
65 72 85 74 76 75 85 74 66 56 49 72 80 79 88 80 82 83 73 72 79 77 66 69 70 69 61 60 53 52 57 57 55 62 71 69 84 83 76 72 64 65 66 78 79 67 66
64 71 80 74 74 72 81 72 77 76 63 72 82 85 83 73 77 79 70 65 71 74 85 74 71 65 59 55 47 50 57 60 58 60 66 74 74 82 95 70 80 48 51 55 66 65 65
68 72 81 81 76 68 80 64 70 81 76 72 79 78 88 78 88 77 76 75 80 75 81 79 69 62 76 60 70 74 78 64 62 66 61 65 79 90 92 94 68 52 60 63 66 60 60
69 83 83 87 77 71 78 71 85 90 82 74 76 80 83 85 76 69 78 82 87 92 93 83 76 76 67 77 72 81 88 74 81 77 64 68 70 78 94 93 87 54 55 50 52 78 59
80 82 83 87 79 70 72 74 75 87 86 81 74 79 80 91 80 71 74 70 65 90 90 91 90 88 68 85 88 95 86 66 86 85 86 78 78 86 86 95 76 55 54 56 76 62 70
86 82 80 83 80 70 74 80 86 81 93 95 83 82 83 94 82 74 69 73 90 82 77 89 89 96 88 93 94 91 86 76 75 70 78 80 83 91 85 90 86 52 58 67 63 67 65
84 78 76 76 75 72 74 88 93 83 92 89 79 72 84 93 82 72 68 65 65 56 75 81 98 100 98 96 91 87 85 86 77 80 66 74 69 76 73 72 51 51 58 54 69 66 62

GFSGBSN_925_rhum_072.txt.gz
RH
90 83 86 86 85 86 86 84 79 81 76 83 87 87 89 92 78 83 90 91 90 79 72 71 77 86 74 82 74 53 59 70 72 78 60 76 81 82 88 84 76 73 63 64 65 81 84
91 87 87 83 88 80 86 90 82 83 80 76 85 89 87 91 86 85 84 89 90 90 77 74 85 86 74 84 51 60 54 51 57 60 61 72 69 76 74 82 80 72 58 60 89 83 66
94 91 90 88 83 87 88 85 87 81 92 84 76 89 88 85 92 91 90 83 91 91 91 88 83 73 78 69 53 53 53 53 56 60 68 70 79 68 73 81 74 68 87 85 90 83 77
95 93 92 90 88 81 86 84 83 83 90 88 86 79 91 83 95 94 96 96 72 80 88 89 91 81 85 48 57 57 57 55 57 72 69 71 81 67 74 66 80 80 80 92 78 78 80
96 94 94 91 87 87 81 85 86 89 86 88 88 83 86 86 94 96 95 92 90 71 88 91 79 80 69 52 58 57 57 61 62 77 68 72 84 76 70 89 90 83 94 86 84 62 82
94 96 94 93 91 89 86 83 81 86 88 88 88 89 84 86 92 96 90 78 86 84 87 87 84 75 59 64 56 56 66 67 77 80 76 80 92 91 89 92 88 88 90 81 89 78 80
85 85 96 94 93 90 88 85 92 91 84 89 86 88 85 89 92 96 84 84 75 76 75 77 74 72 66 58 53 61 66 81 74 89 86 81 97 90 87 78 70 78 75 79 58 64 66
80 72 93 95 93 91 88 87 81 85 87 89 89 88 89 89 95 96 70 72 67 62 72 64 68 68 70 77 71 67 70 85 92 87 93 97 100 75 76 75 68 71 75 72 55 58 62
73 60 86 96 95 92 91 89 87 90 89 90 91 90 89 89 96 80 66 70 71 75 84 78 79 83 77 79 69 73 66 78 96 98 100 89 90 70 74 81 78 73 79 72 66 58 48
69 54 78 97 96 94 93 90 90 88 91 89 91 91 92 95 92 79 74 75 73 71 96 96 82 80 80 78 78 72 74 76 89 92 97 94 82 74 79 83 72 82 60 56 60 66 85
69 50 78 96 96 94 94 91 92 92 89 92 93 96 93 98 79 77 66 72 75 74 95 98 86 78 81 88 81 79 73 72 90 96 96 98 93 91 83 79 61 67 57 57 56 64 60
70 53 75 97 96 95 94 92 91 92 92 94 95 99 97 94 90 78 70 79 79 83 96 100 92 93 83 79 78 79 74 84 76 94 92 95 75 82 80 75 65 61 63 66 72 68 89
70 50 74 97 96 94 94 94 93 93 94 95 97 90 95 88 82 77 78 79 88 90 74 97 100 90 94 100 91 87 86 90 94 99 100 97 97 90 75 84 74 60 73 98 97 96 92
69 48 72 96 96 94 92 94 94 93 95 97 83 82 79 76 76 74 78 84 93 78 90 80 89 96 100 96 92 86 88 96 92 100 100 100 99 92 88 75 82 68 64 90 88 96 86
63 53 69 93 96 93 94 92 94 96 96 90 81 82 85 78 81 81 80 92 81 81 81 86 84 77 86 92 91 86 90 87 89 93 90 96 100 86 88 85 76 85 91 59 80 78 89
56 58 70 94 94 96 96 95 95 96 94 71 79 78 87 81 83 81 92 88 87 73 76 82 91 82 94 85 92 95 91 79 87 84 63 77 98 87 83 77 86 78 69 79 89 84 90
54 63 72 84 88 96 96 96 95 95 90 62 78 89 86 88 88 87 92 92 83 75 76 84 84 70 77 88 84 77 76 72 74 81 69 69 78 97 82 89 92 95 94 80 74 71 77
56 64 69 76 77 79 90 95 95 94 56 60 83 93 87 94 94 96 87 76 66 72 76 78 80 76 61 60 72 74 72 65 66 75 77 68 76 95 84 79 78 76 86 75 90 83 86
56 62 67 74 74 76 74 78 95 82 43 73 91 91 82 94 90 91 79 75 72 69 71 71 62 56 53 59 74 71 67 58 60 70 76 70 85 97 94 79 83 95 85 80 75 82 88
55 64 74 76 72 74 68 64 81 51 43 69 87 86 81 87 85 87 87 82 78 67 64 56 56 51 52 61 69 72 69 62 51 55 56 60 78 75 86 70 84 98 87 83 85 94 87
56 64 78 79 72 79 64 63 53 42 41 50 90 94 88 92 86 84 83 82 81 77 63 63 57 71 59 60 64 75 69 64 53 58 63 59 82 77 71 76 84 85 84 86 97 80 88
71 64 78 75 74 80 68 66 54 42 32 62 78 78 88 86 85 84 76 83 90 85 79 72 74 75 63 57 57 65 66 64 58 56 64 67 83 75 79 73 78 76 80 88 86 82 77
66 66 82 74 71 77 75 70 57 46 40 68 86 87 88 81 80 84 74 75 83 81 76 75 77 71 68 67 61 57 59 61 56 62 72 69 82 81 79 75 68 71 70 78 82 77 78
62 73 79 77 67 76 76 63 64 59 51 63 85 83 75 69 76 78 72 70 67 77 86 77 72 66 61 68 52 54 62 65 59 65 68 75 73 78 89 71 83 49 50 56 70 73 74
63 78 88 79 68 73 80 84 68 66 65 61 78 78 85 69 86 73 75 79 81 81 91 88 80 75 81 58 70 72 77 64 65 68 65 66 79 90 93 93 69 49 61 65 64 58 62
75 82 97 79 70 71 76 78 76 72 70 66 73 78 82 73 65 72 80 80 91 89 90 86 79 76 71 79 70 70 85 73 78 78 71 72 72 77 94 93 80 47 60 52 53 74 53
82 86 97 84 75 72 75 73 75 73 77 70 77 76 76 91 79 71 76 72 70 86 83 81 89 88 77 86 81 87 83 68 85 88 86 82 80 86 87 96 81 57 54 56 74 63 69
81 90 96 87 75 76 76 84 83 85 80 68 84 79 79 92 86 74 69 72 80 83 81 82 84 97 95 91 89 92 90 78 77 72 80 84 87 90 87 92 93 48 62 68 61 69 67
84 85 92 87 74 73 80 93 88 92 77 65 81 77 83 88 83 74 71 66 62 60 76 80 98 100 100 100 95 91 90 88 80 81 71 79 72 80 77 76 52 50 62 53 69 73 64

GFSGBSN_925_rhum_075.txt.gz
RH
94 89 90 88 80 83 82 84 85 87 90 83 75 86 89 89 92 84 83 89 88 89 88 86 85 83 68 74 67 54 63 73 70 84 68 80 88 76 84 78 78 77 69 65 77 77 78
96 92 92 90 87 80 85 88 86 83 88 92 87 74 78 87 94 90 91 84 90 91 89 88 89 81 70 68 53 59 57 63 69 84 63 76 83 67 75 79 79 71 60 71 78 84 70
97 93 93 91 89 87 80 80 83 87 89 90 94 82 78 78 94 95 93 95 84 92 92 89 78 70 72 60 53 56 56 60 69 71 66 66 77 70 74 88 74 70 80 87 81 86 88
92 89 94 93 91 88 87 82 81 88 86 91 89 82 85 87 82 95 96 94 94 72 83 91 84 76 68 50 60 59 59 66 70 68 69 70 74 72 78 70 81 77 80 90 84 79 90
84 82 92 95 92 90 87 81 84 82 84 91 92 78 85 86 83 92 93 84 94 76 87 89 75 76 57 55 55 57 61 64 67 69 70 67 89 78 78 88 88 85 89 88 95 68 88
80 76 87 96 94 92 88 84 86 80 88 93 89 78 80 87 81 85 93 84 91 84 85 84 82 63 59 64 56 61 67 67 77 77 73 75 87 94 92 90 85 95 88 86 78 79 80
75 70 83 96 96 93 89 86 79 86 88 85 86 81 82 88 82 90 86 81 73 77 78 73 74 73 64 63 60 70 66 76 71 84 96 79 98 95 84 73 65 75 74 70 76 74 76
77 71 70 97 96 94 91 86 85 87 90 90 90 82 88 89 85 97 77 73 64 62 71 65 71 68 72 73 72 77 67 80 92 92 78 90 100 80 77 70 70 70 78 75 58 70 66
77 73 66 94 97 95 93 88 84 92 86 84 86 87 92 86 91 90 66 69 69 73 81 81 80 83 79 75 76 81 74 80 98 99 89 82 92 82 77 79 75 74 73 74 67 73 58
78 74 76 94 97 96 94 91 85 89 89 86 88 92 92 92 91 76 74 71 71 71 92 89 77 78 79 80 78 72 69 73 98 98 95 84 89 90 81 81 70 80 64 63 68 76 87
81 74 79 94 96 96 94 90 90 94 93 89 94 94 92 94 80 77 66 71 73 72 93 98 85 79 81 82 75 71 74 73 93 94 95 98 95 94 84 78 62 72 59 61 63 66 62
82 72 75 86 98 97 95 94 91 90 92 94 97 98 95 94 84 74 68 79 74 84 96 100 92 88 79 82 76 76 75 79 74 87 87 94 82 90 73 78 62 61 65 67 73 69 92
80 73 69 82 97 96 96 92 93 92 92 94 98 94 95 86 79 76 77 78 87 89 73 99 100 95 86 87 78 83 87 94 88 97 100 97 95 91 79 81 68 62 73 94 94 96 86
77 74 67 76 90 96 95 92 93 94 94 95 85 95 85 81 78 80 77 83 84 77 91 78 93 98 100 96 96 77 88 97 87 96 98 97 100 95 83 77 76 65 64 84 87 92 82
76 72 64 71 84 96 97 95 95 96 97 91 88 92 84 79 79 81 75 93 80 82 79 86 82 99 100 85 83 85 89 91 91 93 96 99 100 89 90 84 74 78 89 59 80 79 80
77 68 60 66 82 75 96 96 95 96 97 73 83 81 91 84 85 79 92 88 87 70 76 81 87 82 94 89 93 98 92 77 96 89 83 84 99 86 86 77 82 72 65 80 86 83 82
77 63 55 56 69 65 80 96 96 96 76 69 82 90 91 88 89 84 94 94 81 72 76 85 84 73 87 93 87 88 88 77 80 87 66 70 78 97 76 86 90 88 86 79 70 68 70
78 61 52 55 61 66 71 79 94 82 52 71 83 94 91 91 97 97 89 78 67 75 77 78 82 77 62 68 75 75 77 69 73 72 71 67 73 97 98 78 80 82 84 72 86 84 81
77 60 55 59 58 68 63 60 60 60 44 69 90 94 95 96 96 92 80 78 73 72 73 74 64 57 55 65 77 74 70 61 70 69 73 70 83 96 91 74 80 93 90 75 76 81 89
75 56 57 60 62 63 59 56 49 44 52 66 84 90 85 92 88 89 84 83 78 68 64 59 59 54 53 64 70 73 71 64 57 57 63 60 77 73 82 70 83 95 93 85 85 98 82
71 56 64 63 65 58 56 56 49 40 55 49 86 88 88 92 85 86 83 82 80 83 72 68 60 74 65 62 68 77 70 65 55 64 62 62 83 78 67 67 88 90 86 89 91 77 83
68 54 65 66 63 58 57 55 51 42 38 57 74 81 87 87 85 85 78 83 92 86 83 76 75 76 65 66 65 68 68 65 59 59 65 66 85 79 80 79 81 83 82 88 86 81 73
69 58 72 66 60 59 60 55 53 39 40 69 89 89 80 83 79 86 80 76 80 82 78 76 81 72 75 74 68 62 61 64 58 64 72 68 79 82 81 75 67 71 68 77 83 79 74
72 70 73 66 59 62 58 61 59 48 35 50 80 76 70 71 80 76 73 69 71 77 83 76 80 68 71 81 59 57 64 65 64 74 67 75 72 75 85 69 83 50 51 56 67 64 74
78 76 77 67 60 63 72 72 65 58 54 53 71 73 75 85 75 72 71 81 77 80 87 92 85 82 85 65 70 70 76 63 68 76 69 65 77 88 88 90 66 52 62 67 67 58 62
72 79 91 68 58 63 70 78 70 67 64 64 74 66 76 65 73 70 76 78 84 90 86 82 72 77 72 80 72 62 84 72 74 78 75 73 72 75 92 93 76 42 61 53 53 75 52
69 85 93 69 59 63 73 76 69 70 67 68 78 74 71 85 79 72 72 65 73 84 88 84 80 89 80 88 85 82 71 69 84 88 87 84 82 87 78 87 81 58 52 58 77 61 59
80 88 98 73 61 67 75 78 74 72 76 71 84 79 73 90 84 76 68 72 82 82 76 80 87 97 98 97 87 88 88 82 78 72 82 85 91 92 89 96 92 52 66 72 57 64 69
76 89 98 70 66 73 80 83 75 75 74 65 78 82 77 85 80 72 70 67 59 60 79 82 97 96 100 100 93 94 93 89 81 82 75 81 71 80 76 77 54 50 62 55 68 73 66

GFSGBSN_925_rhum_078.txt.gz
RH
98 96 92 91 90 85 85 85 86 82 87 89 98 90 75 83 91 92 92 84 88 89 85 83 68 78 65 51 42 54 64 75 77 74 84 78 70 51 55 54 59 63 52 47 46 57 53
97 98 94 93 92 85 86 82 89 89 86 89 92 95 83 77 92 95 92 95 90 91 90 89 86 67 58 51 49 58 58 71 77 84 77 81 80 40 45 49 58 54 56 48 61 62 59
98 98 96 94 93 91 83 84 81 83 85 92 93 90 88 85 89 93 96 93 88 79 92 90 70 69 56 47 55 62 61 66 75 89 72 71 94 60 43 50 45 53 67 62 62 68 61
95 98 97 95 94 92 91 87 84 83 86 91 92 90 90 82 87 81 95 97 96 64 81 93 78 71 45 50 60 59 57 73 65 79 86 73 88 62 52 54 56 56 48 83 57 68 74
90 94 90 96 94 93 89 85 84 86 82 93 91 87 84 84 84 79 89 92 96 67 87 88 73 66 50 53 49 59 61 60 73 75 79 65 89 74 64 58 63 60 52 49 64 56 74
96 89 85 87 96 94 92 88 86 82 87 91 88 74 78 81 81 82 93 94 94 82 90 84 78 62 50 54 54 60 71 70 67 68 78 73 87 85 59 57 63 62 53 52 57 69 64
99 88 80 84 95 96 93 89 84 87 84 84 84 78 76 84 82 82 90 82 63 72 71 58 62 59 56 57 62 66 64 64 68 72 95 88 96 90 56 42 35 47 54 59 54 68 61
100 90 80 81 93 96 94 93 86 84 92 96 82 78 80 84 93 84 84 63 59 57 62 63 64 60 63 70 62 66 62 66 74 94 86 95 100 74 53 49 44 46 51 51 52 56 55
100 92 76 78 91 96 95 95 90 87 89 89 85 80 85 86 86 92 71 67 68 69 61 72 67 67 64 66 63 74 67 71 92 78 98 90 90 67 59 58 50 47 47 50 50 59 54
100 94 74 70 78 86 95 95 92 89 87 86 84 84 87 87 90 79 69 68 70 66 88 88 70 69 68 67 70 87 83 70 96 90 87 79 81 82 66 53 43 63 44 47 54 56 57
100 93 76 68 63 75 92 96 94 92 91 88 88 89 88 92 81 69 70 68 71 67 80 94 80 78 66 72 64 89 76 69 98 95 84 96 94 95 69 54 44 45 50 47 46 44 51
100 93 76 67 53 72 81 96 92 92 90 93 94 92 91 92 84 75 67 77 73 90 95 99 87 72 64 65 64 64 68 79 70 80 85 90 75 88 55 62 52 49 50 53 54 56 68
99 92 76 66 48 67 75 96 93 90 92 96 93 94 93 82 72 71 76 71 96 85 73 100 98 76 73 67 66 74 82 75 77 98 100 96 96 83 72 66 53 49 52 82 83 82 60
100 91 76 68 51 60 79 93 96 95 95 96 93 90 87 85 77 77 75 75 92 78 97 81 96 84 82 77 82 79 72 80 68 89 100 97 99 95 67 67 63 54 44 57 61 62 48
100 90 76 64 58 58 67 89 87 98 94 91 94 83 89 82 83 77 66 92 88 87 75 83 95 100 100 92 78 68 71 72 72 80 84 90 97 88 73 71 60 65 66 46 60 59 57
100 86 76 60 58 60 60 59 64 98 92 79 90 84 92 86 83 75 84 85 89 63 71 71 76 76 67 74 75 83 69 64 86 77 72 75 96 84 81 75 62 57 47 65 74 74 57
100 86 73 58 57 58 55 50 60 96 67 75 83 75 93 89 88 78 96 85 74 62 66 76 74 77 82 87 73 75 67 77 77 81 74 61 65 94 68 75 62 63 63 60 50 52 46
100 85 71 56 55 56 51 53 51 75 54 83 81 95 96 94 92 90 74 68 63 70 67 69 70 59 60 70 64 62 66 63 73 65 69 57 64 92 97 68 65 64 60 49 62 65 60
98 82 70 51 54 55 50 52 49 44 46 73 73 87 93 98 91 80 71 72 68 68 66 68 58 52 49 57 67 63 61 57 64 59 57 53 67 89 94 68 66 70 64 58 56 66 77
96 80 66 51 54 54 50 50 46 36 46 68 62 89 71 82 70 76 73 74 72 66 60 56 55 49 50 57 57 64 63 58 60 55 61 50 56 58 63 63 59 78 69 66 71 95 56
93 83 62 54 57 50 50 50 42 35 58 60 56 74 75 88 69 71 72 73 70 73 63 57 57 60 53 55 58 64 60 55 53 62 54 52 80 68 55 54 77 75 70 69 93 70 73
91 83 55 56 57 47 51 47 41 37 56 56 50 58 62 65 70 70 71 78 79 76 74 69 64 61 54 54 54 59 56 53 53 53 54 52 80 75 79 64 68 73 60 61 64 62 58
92 78 62 58 52 50 49 44 42 37 37 59 88 82 59 72 66 70 64 69 76 72 74 66 73 61 63 68 59 52 49 50 47 49 54 55 64 71 68 62 62 65 54 56 56 55 57
96 84 68 57 50 50 47 46 45 40 41 41 73 62 52 60 62 62 63 63 66 66 76 64 72 61 70 68 61 49 49 50 49 56 49 55 56 58 64 61 75 42 44 44 46 45 44
91 89 67 56 53 48 52 53 50 49 41 38 56 50 48 55 55 61 59 61 60 64 74 80 76 72 68 62 55 56 57 60 63 60 56 48 51 63 67 63 46 38 53 52 52 42 42
90 84 70 54 54 52 58 58 60 59 55 49 62 52 46 34 37 53 54 59 55 64 63 70 61 58 70 62 60 62 64 59 62 71 62 58 53 54 70 73 57 37 54 47 47 57 48
87 69 70 60 55 59 60 60 66 66 61 60 74 64 54 49 57 54 50 48 56 66 66 69 64 75 74 70 74 64 54 56 58 64 71 69 67 72 64 66 52 40 44 48 57 49 49
88 81 82 72 56 63 61 62 72 70 63 63 84 74 70 61 64 64 60 58 70 56 53 66 73 86 84 78 75 66 58 54 59 56 62 60 64 68 66 72 74 44 55 56 40 49 54
86 85 70 57 62 61 66 74 76 70 61 59 87 77 72 74 66 72 68 66 58 57 59 71 89 92 100 100 89 79 72 66 59 60 62 62 49 52 54 50 41 41 45 43 49 50 53

GFSGBSN_925_rhum_081.txt.gz
RH
98 99 97 94 92 91 87 86 85 94 87 87 89 95 92 82 81 94 93 94 91 87 86 85 82 76 63 47 40 43 57 60 66 77 84 74 71 59 54 43 40 50 37 33 40 42 43
98 96 98 96 94 92 90 86 86 87 84 83 91 93 92 87 83 92 93 92 84 90 90 85 72 60 53 48 42 47 50 58 73 76 82 73 76 46 41 37 39 44 40 36 48 42 44
99 97 98 97 95 94 92 91 88 88 85 84 94 93 93 90 81 89 93 94 94 67 88 89 71 61 49 40 46 51 53 57 84 95 68 86 97 91 36 39 40 39 53 48 53 53 53
99 98 98 98 96 95 93 92 87 87 83 87 92 94 92 95 82 84 96 95 94 83 72 89 67 58 41 49 50 47 46 58 75 73 100 90 97 92 42 31 47 56 47 68 56 48 56
100 100 94 99 97 95 94 92 90 88 84 88 90 91 78 90 79 76 88 84 93 84 81 84 70 53 38 48 43 47 54 50 63 69 87 91 95 84 50 50 65 58 60 49 54 47 63
100 100 96 94 93 96 95 93 91 87 83 86 93 80 75 84 75 75 86 84 89 74 74 64 58 59 40 46 46 49 55 58 57 65 82 91 91 94 62 52 63 54 39 39 50 56 57
100 100 98 88 91 96 95 94 93 88 86 89 90 77 76 82 78 90 85 74 62 67 58 52 48 48 45 46 50 55 54 55 56 83 97 88 97 99 52 35 25 28 31 30 28 41 52
100 100 98 87 77 94 96 95 94 92 88 84 80 78 79 79 82 82 82 54 50 55 55 51 51 48 50 57 47 57 52 60 60 100 86 95 99 83 42 32 40 34 50 50 47 46 48
100 100 98 90 79 93 97 96 96 92 89 86 82 80 83 82 82 84 66 53 65 59 55 61 54 54 53 58 54 56 61 63 76 93 90 94 91 66 54 43 50 40 41 43 45 46 44
100 100 100 92 77 94 97 96 96 95 89 87 82 82 84 82 87 68 61 65 73 66 92 80 61 61 56 53 87 78 72 74 86 88 90 71 81 68 56 42 32 43 29 35 44 55 60
99 100 100 92 78 81 97 93 96 93 93 86 88 88 86 85 72 64 64 70 70 59 82 88 68 61 53 64 65 88 83 75 88 82 97 98 93 80 59 43 34 35 33 36 41 45 34
100 100 100 90 80 71 92 88 89 91 88 92 95 90 87 85 82 72 70 71 68 90 91 97 75 58 51 53 56 67 83 79 72 88 75 83 73 79 58 41 40 42 44 41 39 40 61
100 100 100 91 79 66 82 88 86 95 95 92 91 93 92 82 65 71 76 63 96 87 70 93 83 58 54 60 59 86 94 91 87 94 99 94 95 82 69 59 49 41 47 71 71 75 55
100 100 99 86 75 62 74 88 82 95 94 85 92 86 85 86 83 80 66 70 94 76 97 88 75 67 63 58 62 64 65 65 67 84 99 98 98 92 60 57 59 42 39 50 54 52 41
100 100 99 87 72 59 67 77 78 91 91 84 82 84 80 80 85 84 70 94 92 92 69 85 82 89 80 70 62 52 60 56 61 67 69 81 98 78 70 59 54 52 57 40 50 43 45
99 100 99 85 67 55 61 60 69 93 85 84 76 73 78 83 82 76 84 87 87 60 60 61 78 64 56 59 57 64 54 49 67 64 57 59 97 90 63 64 53 58 38 50 68 65 44
100 100 99 81 63 52 54 52 71 89 68 81 72 74 94 86 90 74 92 74 65 54 58 70 62 69 44 54 50 56 47 60 67 67 62 53 58 88 64 95 69 60 60 50 44 48 43
100 100 99 79 59 47 53 50 61 83 58 82 65 89 94 89 94 79 61 59 59 62 57 61 59 48 53 54 54 50 54 55 63 61 61 50 59 93 75 57 54 56 46 44 62 55 44
100 99 97 80 54 48 51 52 57 70 71 72 61 83 93 98 82 68 60 61 58 61 58 59 52 48 44 49 55 52 53 53 60 56 62 47 66 93 89 63 53 60 50 47 42 68 72
100 100 93 79 48 51 48 50 53 46 38 75 58 88 75 85 64 65 61 61 63 58 52 49 46 44 46 48 47 55 57 57 56 53 59 48 52 59 65 60 51 64 52 49 64 93 54
100 100 93 76 47 50 47 49 48 37 42 65 45 55 62 85 61 58 60 56 58 60 52 48 51 47 44 49 50 53 53 58 55 62 50 50 75 65 53 48 72 68 57 51 78 69 69
100 100 93 76 54 52 48 51 43 36 63 50 42 43 51 54 57 56 67 60 58 65 58 56 52 49 44 45 50 52 49 49 51 51 50 47 77 70 75 51 57 66 53 50 52 52 56
100 98 91 73 61 50 48 49 40 37 49 42 60 56 41 60 54 52 51 57 64 62 63 60 59 49 54 64 50 46 43 42 42 46 49 51 58 65 63 51 51 58 50 48 46 44 47
100 99 98 76 60 51 49 44 38 38 41 45 52 39 38 41 44 49 55 56 61 61 64 60 57 51 65 54 51 43 40 42 41 44 42 49 52 54 63 53 71 37 36 36 40 37 37
100 98 94 79 57 53 47 44 40 38 39 57 59 38 31 42 43 54 53 56 54 55 62 67 68 61 57 55 50 53 53 52 49 49 46 42 43 52 62 54 40 33 35 42 44 36 31
100 95 93 77 56 54 53 48 45 46 44 57 68 52 30 38 42 44 51 49 52 55 60 60 56 50 63 52 54 59 58 47 56 59 52 50 47 52 58 64 58 38 48 41 43 49 44
100 98 93 79 61 66 57 51 48 53 50 54 67 51 38 35 43 38 37 42 43 51 53 59 55 67 64 59 66 59 46 44 51 52 65 63 58 67 61 65 45 31 43 41 56 50 42
100 96 94 78 73 73 61 54 54 55 57 71 83 61 57 42 53 48 48 48 50 43 46 60 63 69 66 70 64 59 49 43 47 38 48 49 53 55 53 61 69 42 45 47 41 41 41
100 96 87 83 75 67 63 58 61 59 59 64 76 82 75 58 58 60 62 63 56 54 48 61 78 91 97 82 70 70 57 50 43 50 47 57 40 43 42 42 38 36 34 35 37 44 42

GFSGBSN_925_rhum_084.txt.gz
RH
98 98 99 98 96 93 93 91 89 89 86 84 85 92 94 90 82 81 94 94 92 86 89 87 85 78 73 58 46 40 49 48 62 61 68 86 74 72 70 55 48 62 57 56 53 79 57
98 98 99 99 97 95 93 93 91 90 89 86 83 96 92 87 83 81 91 93 95 84 87 89 81 62 69 62 40 45 47 52 72 68 72 74 80 65 65 45 47 47 48 52 54 68 85
99 99 98 98 99 97 94 94 93 91 88 83 89 92 95 84 93 83 86 95 94 92 73 89 91 75 51 48 40 46 46 67 77 81 78 71 94 86 78 55 35 37 51 48 78 73 79
99 100 99 99 99 98 96 96 95 92 90 85 86 92 95 86 88 83 83 95 96 96 72 75 81 68 57 46 44 41 45 62 71 81 91 97 90 80 81 60 40 58 53 66 59 72 73
93 100 100 99 99 99 97 96 95 93 89 85 88 93 79 77 83 75 84 81 88 93 66 74 74 54 49 45 43 41 48 48 61 79 70 93 81 84 78 86 69 66 72 63 62 54 60
88 90 100 99 99 99 96 96 95 94 91 87 91 85 77 81 77 78 78 76 82 62 73 62 52 56 55 46 44 46 49 53 57 64 86 88 86 96 90 76 85 71 67 57 58 70 74
77 80 97 100 100 94 94 93 95 94 93 90 85 78 76 79 80 76 84 86 74 70 56 54 49 44 38 43 42 45 49 49 58 80 98 94 99 100 82 55 44 51 46 54 47 55 64
77 76 98 100 100 92 87 82 95 96 93 92 86 77 80 80 77 77 76 73 55 58 61 46 47 44 44 50 50 50 54 59 62 100 99 97 100 83 64 47 37 38 46 55 64 54 55
74 74 99 100 100 96 84 82 94 96 94 92 85 82 82 79 80 81 80 53 61 55 67 56 49 49 49 54 54 59 61 59 82 99 97 98 94 78 71 64 54 37 40 73 72 58 48
61 75 95 100 100 98 84 75 90 97 95 92 84 86 80 82 83 71 61 60 67 64 98 78 61 61 55 50 91 72 66 71 74 98 86 90 80 88 80 64 50 60 36 41 47 58 72
63 80 96 100 100 97 85 67 88 97 95 92 90 90 84 82 86 65 64 66 66 61 90 82 65 50 50 66 83 81 78 76 72 80 90 95 83 76 64 54 44 53 45 45 50 59 56
76 71 90 100 100 96 82 65 84 95 94 93 95 91 85 83 82 67 67 65 67 97 91 88 65 53 52 52 67 79 86 84 77 90 79 90 69 79 84 52 47 52 55 43 41 48 80
98 87 93 100 100 94 78 60 80 92 93 89 88 85 90 72 72 69 72 72 99 88 69 80 76 55 49 59 75 91 89 83 95 97 99 92 95 76 71 65 50 45 54 87 89 91 79
95 77 97 100 100 91 72 54 84 94 85 78 85 84 83 82 80 75 72 86 87 76 96 71 65 56 64 58 60 54 65 72 66 79 91 96 96 88 69 72 60 54 52 83 65 77 63
99 85 99 100 100 81 67 56 86 82 77 82 88 85 79 78 79 82 81 92 88 93 74 75 72 69 69 59 56 49 53 69 75 68 94 90 94 80 73 73 65 59 70 43 67 41 75
100 87 100 100 98 80 62 57 83 74 69 80 84 76 87 82 72 80 93 86 90 64 55 58 84 74 56 54 54 60 53 49 68 61 57 57 97 83 81 72 58 62 47 62 86 73 48
86 98 100 100 94 78 58 66 73 71 61 82 86 82 95 79 86 84 98 72 63 52 55 61 58 55 47 53 46 52 51 60 60 65 62 54 67 93 75 83 73 69 68 55 53 60 70
86 100 100 100 93 70 49 63 67 64 55 86 70 95 95 90 99 80 74 58 63 56 54 58 60 46 45 48 49 49 49 64 62 57 63 52 71 93 77 64 55 61 73 54 88 68 65
100 99 100 100 93 67 46 55 56 55 66 78 72 87 93 97 98 81 61 61 53 61 58 57 53 48 44 48 59 50 52 59 61 58 63 53 79 97 87 66 60 70 59 56 59 78 76
89 100 100 100 94 67 48 53 53 46 72 78 70 96 93 89 73 75 63 63 67 58 52 48 46 44 46 47 46 57 62 58 59 54 58 58 59 68 90 70 67 72 59 54 72 97 72
96 100 100 100 93 58 54 53 53 46 72 84 65 77 69 92 79 66 56 54 58 62 55 48 51 48 45 50 50 54 57 66 61 62 54 58 79 71 61 47 76 74 63 59 79 70 82
89 100 99 100 91 73 53 54 51 45 46 73 57 61 62 59 52 60 63 62 50 64 56 55 56 48 45 51 56 54 51 56 59 60 53 52 91 79 84 54 56 73 62 57 56 56 65
93 100 100 100 90 77 52 53 47 40 53 57 56 50 59 60 59 60 61 51 51 59 61 58 52 48 56 64 52 51 47 45 46 54 60 59 71 78 81 52 54 72 57 59 55 50 54
99 100 100 100 86 58 55 52 43 36 51 46 49 43 57 57 55 56 53 57 62 62 62 60 57 56 66 54 53 53 42 41 41 44 46 56 58 66 86 62 85 50 37 38 44 43 44
89 99 100 99 92 61 61 47 40 38 52 50 48 55 49 48 52 54 56 57 56 61 63 62 68 60 58 60 58 60 61 54 50 47 49 46 57 67 80 76 57 41 44 43 45 45 32
100 100 100 98 82 68 61 46 38 42 54 51 46 46 53 53 54 46 55 55 63 65 68 63 57 49 65 68 61 66 75 52 66 66 53 53 52 69 78 83 70 54 49 41 44 64 51
96 99 100 98 84 74 63 47 46 41 44 49 46 43 59 55 52 49 54 57 49 55 65 64 57 71 65 74 68 73 60 45 56 56 72 72 67 83 79 85 74 42 46 41 64 66 43
100 100 99 97 92 72 65 52 50 47 57 55 56 60 63 61 65 49 46 53 52 50 62 66 70 73 77 75 74 75 59 54 52 41 48 67 72 75 76 82 88 43 47 52 52 43 43
100 100 99 99 91 79 67 61 56 54 53 49 66 68 54 72 69 63 66 63 58 57 60 72 83 86 95 88 79 75 67 57 50 59 47 65 49 64 53 57 44 45 46 40 42 48 51

GFSGBSN_925_rhum_087.txt.gz
RH
99 98 98 99 95 95 98 96 94 92 89 88 83 85 97 88 88 85 81 94 92 92 86 91 84 78 63 75 61 46 48 47 54 60 67 79 83 87 81 76 65 80 79 76 67 74 75
99 98 100 100 98 96 98 97 95 94 92 89 86 90 94 90 88 78 81 88 94 96 88 90 89 73 73 88 42 42 47 58 56 62 68 72 80 73 82 68 69 62 65 61 59 76 71
87 95 98 100 100 99 97 87 97 96 94 90 87 88 94 86 78 75 83 85 95 96 94 82 90 82 75 71 43 42 48 64 63 66 78 75 83 92 92 70 48 52 66 62 84 71 70
89 88 98 97 100 99 97 89 98 97 94 92 86 89 95 83 76 79 79 84 96 96 96 71 83 82 76 44 39 42 46 68 68 67 63 76 99 79 91 75 64 59 66 82 83 75 70
87 89 89 100 98 100 99 91 96 97 95 93 90 90 84 76 76 79 80 87 85 88 78 60 73 77 66 45 44 43 48 54 67 84 92 75 83 86 88 90 78 74 79 74 89 71 77
100 94 87 90 98 99 100 92 90 97 96 94 92 88 78 78 77 78 72 75 81 67 72 71 65 63 57 49 43 46 48 52 62 71 78 84 88 96 93 94 81 82 78 66 75 80 73
99 99 90 90 91 100 100 97 89 92 96 96 91 82 81 80 80 76 75 83 83 82 71 62 56 53 46 46 40 52 52 52 61 77 96 95 98 100 94 89 79 59 62 62 61 69 78
98 95 99 87 90 100 100 96 84 81 96 96 90 82 80 80 79 76 76 90 64 61 72 48 50 50 44 50 58 62 58 66 71 99 98 98 99 83 73 68 68 57 63 63 59 60 60
94 99 96 88 86 100 100 97 84 76 97 96 89 81 82 77 78 78 75 72 58 59 75 60 51 54 57 56 72 77 71 73 80 100 100 91 96 77 76 68 57 64 61 80 62 75 75
86 96 95 100 79 100 100 98 81 71 94 95 88 89 83 81 81 68 72 62 57 64 98 82 65 61 60 80 83 69 72 76 79 99 96 98 80 78 77 67 61 67 58 74 71 72 95
87 99 98 100 79 99 100 98 79 73 85 92 87 86 84 83 83 68 65 63 63 64 91 78 65 50 57 71 78 72 75 80 92 91 94 99 93 89 84 69 61 63 59 72 78 67 73
82 98 97 100 78 100 100 98 74 72 79 93 92 87 86 81 82 66 67 63 70 89 93 82 73 63 67 76 81 75 86 86 78 84 79 94 84 87 86 72 68 72 61 58 65 67 79
93 99 90 100 85 99 100 96 66 71 81 84 79 83 85 81 76 68 71 78 88 90 70 74 76 58 60 84 88 83 80 93 94 87 98 83 90 79 74 67 73 80 66 95 90 87 79
89 96 87 99 88 94 100 93 58 76 83 71 77 84 87 82 70 72 76 92 86 72 86 68 67 60 75 63 62 79 84 85 71 84 89 93 83 91 77 82 78 78 56 82 83 90 68
100 99 82 99 87 100 100 89 65 87 69 77 82 86 86 81 71 78 87 94 90 88 78 83 74 76 72 63 64 55 67 83 79 71 85 95 93 78 75 81 73 64 78 48 73 56 80
100 96 95 100 98 100 100 76 78 71 68 85 84 84 91 77 72 81 94 82 88 82 69 66 82 75 63 60 61 63 61 59 74 67 69 70 98 81 80 71 60 61 55 65 85 68 58
98 94 99 100 100 100 98 76 93 68 72 85 79 94 92 78 80 94 95 78 70 57 60 63 71 70 52 58 56 57 71 65 64 68 67 62 75 94 78 87 80 72 70 61 60 69 71
99 96 98 99 100 100 94 74 95 72 77 88 80 100 92 89 96 92 92 67 57 63 57 66 65 66 53 52 51 55 68 73 64 63 66 57 81 86 80 65 64 65 74 69 86 70 73
100 83 98 100 100 99 90 84 94 72 79 85 87 98 92 95 97 95 69 66 60 68 68 64 63 50 46 53 62 55 73 68 64 62 70 60 85 97 85 72 65 73 69 69 68 76 79
100 90 100 100 100 99 92 91 74 47 74 70 87 98 98 96 90 91 76 78 75 57 58 50 52 46 49 51 50 59 73 66 63 59 56 59 69 72 84 70 74 80 66 64 74 90 77
99 91 98 100 100 99 92 73 55 39 75 77 80 91 77 98 95 92 65 69 74 71 59 52 54 52 51 55 56 58 69 72 64 61 56 64 81 76 61 56 77 76 66 66 83 72 80
98 98 91 100 99 98 90 57 47 44 91 87 69 86 78 86 75 89 69 67 69 66 62 61 63 50 55 68 64 66 66 69 70 67 59 61 87 81 78 60 60 68 67 67 68 66 72
98 98 78 95 99 98 80 63 48 57 83 72 59 54 65 72 77 80 78 64 58 69 64 64 62 60 72 70 62 56 56 50 49 68 68 68 76 83 90 56 58 66 57 64 63 58 60
98 75 100 96 99 99 81 59 51 50 62 49 48 56 65 71 76 72 62 56 65 68 71 68 71 65 71 60 58 55 50 44 44 55 49 62 66 76 89 69 88 53 39 41 56 54 54
91 88 92 99 100 96 78 66 54 43 52 44 48 55 61 65 67 65 65 73 69 65 69 77 74 66 66 63 68 69 71 59 54 53 59 54 64 75 84 85 65 48 46 48 48 52 50
98 86 90 100 98 98 92 65 52 40 61 42 46 44 61 64 62 55 67 66 80 81 73 74 58 53 67 79 70 74 82 68 74 70 58 57 64 78 86 86 82 50 49 43 46 63 53
99 93 96 96 99 96 95 64 56 45 69 38 41 40 50 67 62 57 66 68 56 70 86 76 62 75 70 85 79 79 67 49 69 71 81 80 77 86 83 92 79 56 47 43 54 52 46
83 98 92 100 98 98 83 66 58 69 72 44 45 57 51 81 74 64 64 63 59 63 85 72 75 77 88 81 76 78 71 61 56 48 70 74 84 85 85 86 90 48 44 47 47 49 47
76 98 98 100 99 90 79 75 82 80 56 37 66 63 48 77 77 69 69 64 66 65 76 84 85 91 96 91 89 86 81 76 63 64 54 60 58 66 65 69 49 47 43 40 44 50 53

GFSGBSN_925_rhum_090.txt.gz
RH
92 87 88 95 100 100 100 98 97 96 95 92 87 88 90 94 97 79 83 79 91 92 93 87 89 83 64 77 74 47 46 48 54 57 64 74 81 74 87 84 72 81 72 75 82 75 80
100 95 90 88 94 100 100 100 93 96 96 95 91 84 88 95 85 71 83 83 86 96 92 85 91 86 74 85 45 42 46 51 58 55 62 69 77 66 91 93 78 68 64 70 88 76 72
99 100 100 92 89 94 100 100 98 91 91 95 93 88 84 92 90 82 79 83 84 96 97 93 85 87 80 74 46 44 46 61 60 56 72 87 79 86 81 80 66 65 79 68 82 85 81
98 98 98 99 96 92 98 100 100 89 86 96 94 87 91 88 75 75 81 82 94 96 96 95 84 84 89 47 43 44 44 65 64 63 74 79 87 83 91 82 79 71 78 96 87 89 89
88 98 97 93 98 95 94 100 100 93 95 97 95 89 89 80 73 76 78 87 97 96 94 82 77 80 78 47 46 42 43 54 70 80 78 83 94 91 83 94 88 76 92 93 99 82 88
86 86 94 94 91 100 97 100 100 98 98 97 96 88 80 75 75 79 85 87 71 67 74 72 70 71 52 53 45 43 51 51 66 74 79 83 90 96 95 98 89 93 84 70 92 89 82
85 87 85 91 92 95 97 96 100 98 97 96 96 86 82 77 81 77 87 80 78 78 77 66 60 61 51 46 46 57 58 60 65 76 92 92 93 99 97 93 85 64 67 73 77 82 73
80 87 89 83 95 89 100 90 100 100 96 97 92 85 80 78 78 77 81 89 64 60 73 56 52 53 48 52 64 64 58 70 75 100 97 99 96 84 90 82 75 63 66 68 69 66 69
76 85 90 87 92 95 99 90 100 100 100 98 93 83 80 76 78 78 77 73 59 58 79 64 54 57 57 62 79 80 75 79 95 100 100 99 89 75 83 85 75 67 66 64 80 79 74
80 85 90 91 87 94 100 98 100 99 99 97 87 85 81 81 78 72 77 62 58 64 92 81 67 60 62 74 83 66 74 81 96 100 96 98 81 77 90 74 57 70 57 53 76 90 100
83 86 87 91 95 94 99 98 99 99 98 90 83 88 80 80 81 76 63 63 64 60 75 58 70 52 60 77 80 65 74 84 96 97 93 98 87 84 82 77 60 68 61 61 72 82 95
74 92 95 94 94 99 100 100 100 99 91 86 89 88 82 82 85 70 65 65 71 79 86 78 72 68 76 74 75 78 84 88 91 92 84 93 81 89 91 77 68 68 72 75 81 90 96
80 84 98 100 87 98 93 100 100 99 91 85 90 84 84 78 80 68 68 78 86 87 64 75 73 64 68 87 83 85 84 89 96 87 96 91 95 85 79 77 70 69 82 99 98 98 77
81 95 99 76 98 94 99 100 100 97 85 77 82 80 86 85 69 71 75 84 87 75 84 68 71 67 74 64 61 82 83 88 77 80 90 94 96 86 76 89 93 86 81 85 90 89 69
86 97 97 98 100 96 99 100 100 88 80 78 82 93 87 80 74 74 81 94 84 85 78 84 74 81 72 64 68 61 71 84 80 81 90 92 92 75 77 79 82 81 76 51 73 69 76
88 98 98 100 98 97 99 100 100 83 73 88 86 92 92 79 73 76 92 85 88 73 73 69 82 71 66 60 63 64 66 69 72 71 70 74 98 80 78 67 62 58 53 66 83 70 64
88 97 99 100 100 97 100 100 97 88 82 78 80 94 96 80 82 92 97 90 77 64 62 68 74 79 58 61 62 60 78 69 69 71 70 66 76 85 75 82 86 72 67 68 66 70 65
75 96 96 100 93 98 100 100 90 85 80 74 87 99 99 90 98 96 95 76 60 67 61 66 66 71 54 56 53 62 82 79 67 66 70 69 78 89 80 67 65 66 75 68 83 68 79
70 95 100 85 88 100 100 96 77 83 88 80 98 97 94 96 90 96 85 70 65 71 70 71 70 56 49 56 66 70 78 71 66 69 73 63 86 89 80 66 64 72 68 69 72 78 82
74 94 98 97 100 100 100 92 83 92 72 62 92 96 98 96 91 91 83 80 80 62 66 58 54 49 51 54 54 70 76 69 64 63 59 60 76 69 86 71 75 78 71 69 76 90 76
78 92 96 99 97 100 99 88 84 80 70 64 83 94 79 96 98 93 75 78 82 76 60 53 56 53 53 62 59 75 78 74 66 65 57 68 85 75 64 59 76 76 72 71 84 74 81
84 95 99 96 100 100 99 87 87 76 84 70 84 95 85 90 83 94 86 82 74 70 67 65 64 56 54 67 61 70 75 74 73 67 61 66 89 77 75 61 62 67 66 68 72 69 74
90 90 98 98 95 99 97 90 83 79 94 75 65 61 74 83 91 90 82 75 71 72 68 63 59 72 70 66 59 59 60 57 58 71 71 70 78 83 88 67 59 70 57 62 64 61 63
95 88 88 98 98 94 96 94 93 75 78 48 52 62 72 84 85 79 69 60 74 68 78 75 65 72 70 62 60 56 52 53 55 55 60 75 76 82 90 70 87 53 43 44 59 57 54
94 92 92 94 100 99 95 85 83 87 75 44 51 56 66 83 75 67 72 79 75 76 75 82 74 71 69 59 71 73 76 61 58 63 62 61 75 81 86 87 66 49 46 48 45 48 55
93 94 97 99 99 99 96 88 97 96 76 41 48 48 63 70 69 60 75 72 86 85 79 80 57 60 70 75 74 79 88 71 79 70 64 66 71 76 90 87 82 50 51 46 44 69 48
96 92 99 87 98 99 95 79 93 76 76 39 46 50 51 74 73 62 74 72 74 82 89 78 66 76 70 85 83 83 73 60 84 80 79 81 82 86 86 84 80 59 52 44 60 52 49
96 88 96 97 99 99 98 97 90 77 86 40 50 62 51 85 80 74 69 61 64 80 89 76 76 76 88 81 78 81 75 64 59 64 75 76 87 90 88 89 91 50 47 51 45 55 51
94 94 100 94 98 100 99 92 81 78 86 46 62 53 53 81 82 78 76 72 66 66 84 88 83 90 92 90 88 88 82 78 68 66 61 66 66 69 74 75 59 58 52 59 63 62 60

GFSGBSN_925_rhum_093.txt.gz
RH
99 97 94 95 99 98 96 96 100 100 96 95 94 90 90 91 94 87 82 85 84 86 94 88 91 92 67 77 77 45 52 47 51 62 62 72 81 82 87 85 73 81 72 59 78 90 82
97 97 99 98 97 96 100 99 100 100 99 93 96 93 92 83 95 83 81 80 84 87 93 92 88 89 76 78 46 45 44 50 58 62 57 63 77 74 83 86 82 66 66 64 67 88 78
88 95 94 92 97 95 95 98 98 100 99 96 92 95 92 86 95 90 81 87 83 88 97 94 86 90 83 74 46 47 46 54 60 60 65 68 82 78 75 87 67 66 82 71 75 85 92
75 77 87 90 89 90 94 94 99 100 100 97 95 96 91 93 90 77 84 78 89 94 95 97 88 86 95 44 47 46 44 60 64 63 71 77 76 83 86 82 89 79 78 87 74 88 88
71 72 73 81 88 90 88 91 93 100 100 98 94 94 90 96 83 77 81 84 95 94 95 92 81 83 86 47 51 46 46 54 65 69 73 83 86 88 87 97 88 82 92 83 86 83 84
72 73 72 76 81 89 92 90 96 100 100 98 93 96 86 89 77 77 86 77 78 77 79 75 75 80 56 54 46 44 50 53 67 74 80 88 94 99 99 96 91 76 96 84 78 94 90
68 68 72 75 76 86 92 94 90 99 100 99 97 97 82 84 76 77 80 74 80 76 77 67 61 66 57 48 50 61 60 63 67 75 99 86 100 98 100 95 87 66 81 95 88 82 86
71 69 69 68 90 82 88 90 90 98 100 99 98 96 84 81 76 79 76 87 63 57 73 65 58 56 51 53 69 63 63 73 77 100 97 98 98 85 83 89 92 75 76 77 82 85 76
70 68 69 68 75 82 86 94 97 96 100 99 96 94 84 78 80 80 76 75 60 57 80 68 58 58 57 62 82 75 75 82 95 100 100 89 83 78 87 96 97 77 72 74 82 83 77
72 68 70 68 69 93 90 94 96 96 100 99 96 93 81 77 78 76 76 65 61 62 87 65 68 60 66 73 74 65 82 89 98 100 97 90 84 87 97 95 71 79 68 75 84 93 99
73 72 71 66 79 82 91 96 100 93 100 99 92 91 80 78 78 80 63 63 63 56 57 44 66 54 69 76 77 68 84 92 97 92 96 98 92 98 98 91 69 75 64 78 79 93 94
78 69 72 80 81 89 93 98 97 84 100 100 89 94 80 94 81 71 64 66 66 75 50 76 67 64 76 71 76 80 90 94 82 83 83 93 82 88 92 79 70 69 75 83 94 90 96
83 77 90 90 84 96 99 99 89 93 100 97 88 95 84 81 81 68 65 73 84 66 58 60 63 67 70 79 80 87 88 88 98 94 98 91 96 80 83 79 71 75 76 98 96 97 88
90 85 96 99 96 99 96 99 88 100 100 91 92 94 85 82 70 68 70 81 72 72 88 68 71 73 78 66 62 75 75 89 80 81 95 97 92 92 79 88 86 86 72 87 91 95 76
94 86 91 99 95 95 98 98 98 100 96 91 95 97 95 79 72 72 81 94 73 84 75 81 75 84 70 65 68 64 78 87 83 84 82 92 99 74 78 80 82 74 87 54 71 68 78
89 84 83 88 93 96 99 100 100 100 92 93 94 93 95 81 74 72 93 86 91 70 73 67 76 70 65 62 64 66 76 74 78 71 71 75 94 78 75 69 73 67 50 66 81 74 57
86 78 76 79 97 98 100 93 100 98 93 96 80 95 97 81 75 89 98 89 83 72 64 72 77 80 67 62 62 73 86 74 73 70 67 68 75 82 70 82 85 70 68 71 69 70 63
83 74 76 81 95 100 88 96 99 94 92 79 86 98 100 88 98 96 98 84 65 70 65 67 69 67 55 58 60 79 84 84 72 67 72 71 78 96 85 71 68 69 77 67 80 69 84
82 75 75 92 96 100 96 100 92 90 85 80 95 95 99 98 96 96 85 74 66 72 70 74 72 64 51 57 74 78 82 72 70 70 69 62 83 91 77 66 64 70 70 75 74 79 82
77 79 85 97 83 99 100 100 93 91 83 63 90 98 99 96 88 86 86 83 83 65 68 66 55 50 52 59 64 77 80 71 66 65 63 63 77 68 81 66 73 77 72 72 75 90 78
78 77 95 97 92 99 100 100 92 89 79 64 81 94 82 96 94 91 84 81 85 79 62 58 58 55 56 65 64 80 80 76 68 69 60 68 84 77 66 64 75 74 73 76 87 73 82
81 84 99 88 97 99 100 100 100 87 95 66 89 95 89 91 89 95 89 85 80 72 67 66 65 58 57 64 61 74 79 76 69 68 64 72 93 76 77 66 66 67 65 66 74 73 76
79 91 92 99 100 99 100 99 94 100 87 67 67 70 78 88 94 95 88 84 73 75 72 62 63 67 66 65 62 62 60 65 61 67 72 73 79 83 86 74 61 68 52 60 63 64 63
77 90 95 93 97 92 95 96 99 99 75 50 58 66 80 95 90 88 76 68 77 68 81 79 65 64 68 65 60 56 60 61 62 66 65 75 80 83 92 72 75 49 48 48 58 54 61
82 94 94 95 97 92 86 84 98 100 70 44 55 58 75 94 82 72 78 86 82 80 86 83 75 75 71 60 72 71 77 61 63 71 66 68 78 88 87 88 65 50 47 48 50 52 53
89 95 94 97 98 100 88 84 93 100 75 43 50 55 68 76 78 66 80 76 87 87 84 80 60 70 70 76 73 77 88 71 80 74 66 70 73 73 90 89 81 50 52 48 45 69 44
93 96 97 94 99 98 94 87 81 91 91 37 52 49 56 81 85 71 81 77 80 84 92 77 73 76 69 83 84 85 78 68 85 82 82 83 84 86 87 83 77 58 54 45 64 56 63
95 94 96 94 99 99 96 95 88 90 88 46 57 50 56 89 89 81 75 64 74 82 88 78 76 75 87 79 75 82 76 70 65 66 74 76 88 90 89 90 91 54 49 55 62 69 66
81 98 95 79 100 99 97 93 83 86 83 46 56 61 59 86 90 81 80 76 70 69 86 89 81 88 87 88 86 89 82 79 71 71 64 72 70 77 76 75 66 65 55 63 68 76 76

GFSGBSN_925_rhum_096.txt.gz
RH
83 84 89 94 97 97 98 98 99 93 99 99 99 94 92 95 90 94 94 85 87 84 94 90 88 94 69 79 80 46 58 50 50 64 64 69 85 85 92 85 84 90 77 69 61 79 80
72 74 73 76 78 92 96 96 94 95 95 100 98 94 94 95 92 95 88 88 90 83 93 94 87 92 76 76 43 47 46 45 55 60 61 65 76 75 83 82 86 72 71 67 67 65 82
68 69 72 73 73 75 81 89 87 87 94 100 100 96 94 94 90 96 88 84 84 85 92 96 91 90 85 63 46 49 46 50 58 64 67 63 67 79 76 86 70 76 83 69 67 71 83
73 72 72 72 75 73 76 78 88 89 93 97 100 97 94 91 89 90 86 81 86 93 91 95 92 87 81 42 52 48 46 55 63 67 68 66 70 86 78 80 87 82 78 93 69 77 80
74 73 74 73 72 71 77 78 79 88 90 90 100 98 95 93 89 87 78 85 87 92 94 92 82 82 88 48 49 48 47 53 62 70 75 72 75 86 82 96 91 92 94 95 90 72 89
72 72 73 73 73 73 68 78 78 84 87 91 100 100 99 93 92 82 77 88 81 75 86 86 78 82 59 53 47 46 47 54 67 72 78 91 95 98 93 99 89 98 90 87 78 88 84
75 72 73 72 70 72 72 70 80 84 95 87 100 100 97 89 89 78 84 71 77 80 81 72 64 69 59 49 51 58 62 63 68 76 98 96 100 98 88 84 80 81 82 90 85 86 87
78 78 76 70 70 70 71 71 80 83 91 90 100 99 94 92 89 80 83 85 68 56 71 70 67 61 54 53 69 66 64 72 84 88 88 96 99 79 83 85 88 80 90 85 96 84 85
83 81 77 70 70 70 69 70 79 82 94 96 100 100 95 92 92 88 81 77 61 56 78 69 62 60 59 60 77 74 75 82 90 99 92 97 85 78 97 96 96 80 85 92 91 89 85
85 85 79 79 77 69 70 74 76 84 95 96 97 98 94 93 88 79 78 69 61 60 82 50 69 62 66 73 69 68 77 87 99 100 98 99 79 77 100 93 73 92 71 82 90 96 99
84 83 82 85 86 75 80 82 85 91 91 96 98 96 94 81 79 80 64 66 59 49 44 39 63 53 67 82 74 78 89 96 99 94 98 98 96 97 100 94 76 82 74 76 83 92 91
86 82 88 89 90 91 94 94 85 94 92 96 100 96 96 92 83 70 65 60 58 74 42 64 64 64 73 76 77 78 93 95 89 94 88 98 97 95 95 84 78 71 73 84 87 85 91
89 86 89 83 94 92 97 89 92 94 95 95 100 94 98 90 82 69 61 67 84 65 51 60 63 66 72 76 75 86 89 90 96 92 96 89 93 84 89 81 79 75 76 97 92 92 87
94 92 92 93 90 94 87 92 95 92 97 95 99 94 97 85 69 67 62 79 78 65 83 70 68 68 77 67 63 68 76 92 81 78 95 93 96 96 82 95 95 89 74 89 91 94 80
96 90 93 93 89 84 89 97 98 99 99 100 97 100 96 85 70 66 79 94 74 78 72 79 70 72 66 63 71 67 82 88 82 85 78 95 99 72 83 83 80 86 83 56 76 68 88
83 91 92 88 78 80 90 98 100 100 96 98 98 98 98 79 78 67 91 88 90 69 72 60 66 69 65 64 67 70 78 76 83 74 72 76 93 74 74 67 71 63 53 68 84 75 58
94 89 83 80 77 81 91 100 99 100 98 96 89 96 97 82 72 87 98 89 80 72 64 64 76 78 67 63 64 82 90 75 79 76 69 68 77 81 69 89 87 76 71 72 71 72 64
92 82 81 78 85 94 100 100 99 99 98 86 94 100 98 85 96 91 95 88 68 76 70 68 69 60 59 59 73 82 89 88 78 72 75 73 81 99 90 74 72 71 81 66 79 71 85
87 81 78 81 91 100 100 100 100 90 86 83 97 98 99 96 97 97 87 79 69 73 72 72 71 64 54 57 74 79 83 71 75 74 72 61 83 90 76 66 62 73 75 75 76 79 82
78 81 81 94 98 100 100 98 89 88 83 79 97 99 97 96 82 83 90 86 83 66 68 68 61 55 56 64 75 80 82 73 72 71 66 63 78 67 82 69 74 75 74 75 76 89 78
75 82 90 100 98 98 100 100 99 96 79 74 92 95 80 94 94 86 81 82 87 82 65 67 58 56 59 66 70 84 83 77 68 71 64 67 86 80 71 71 74 74 73 78 86 72 81
84 83 100 100 100 100 100 100 98 93 83 79 88 97 87 90 86 87 88 86 81 77 72 68 65 58 56 63 59 74 79 76 68 66 67 73 94 75 80 72 69 68 64 68 75 75 78
80 94 98 96 100 100 100 99 99 92 79 78 73 72 82 78 95 92 92 86 76 77 74 64 62 66 66 64 64 67 65 73 69 66 75 75 79 81 88 76 62 65 53 59 64 65 64
83 95 98 99 99 97 99 96 100 87 63 54 65 72 86 95 92 90 83 71 81 70 81 80 68 60 66 65 61 56 63 68 68 73 71 76 82 84 92 67 59 47 48 50 57 56 57
90 94 96 100 94 84 95 93 96 90 47 48 59 63 85 90 88 78 80 88 85 85 90 84 79 79 71 60 70 72 77 61 69 79 75 74 79 88 87 88 58 54 51 50 52 52 59
93 97 96 94 100 89 90 93 99 92 58 46 57 56 73 82 80 75 84 78 89 90 86 77 67 74 67 77 71 73 83 71 77 74 67 71 76 78 88 87 71 48 56 50 46 66 71
95 97 98 92 99 92 86 88 99 94 85 49 54 49 60 86 90 83 84 80 82 85 93 79 78 73 67 82 83 84 76 68 82 80 82 84 85 87 84 83 77 58 60 49 66 60 74
90 80 99 96 100 94 90 92 95 95 90 70 62 52 58 95 93 88 83 71 81 82 87 80 77 74 85 78 75 83 78 77 72 69 75 79 88 89 90 92 89 62 54 57 73 75 80
80 94 94 75 99 95 88 80 82 78 79 77 50 58 63 88 91 84 82 80 78 71 88 88 80 84 84 88 83 88 79 80 72 72 68 74 68 78 77 76 66 68 74 73 77 84 87

GFSGBSN_925_rhum_099.txt.gz
RH
75 66 68 72 73 74 73 77 84 91 97 98 97 99 98 96 92 87 78 94 88 87 86 84 91 92 68 77 75 48 63 56 47 54 64 66 80 83 80 84 77 82 75 66 62 62 62
81 80 70 67 72 73 72 74 76 82 89 97 95 97 99 98 92 84 84 89 89 92 86 89 89 84 73 63 38 50 47 46 52 64 63 70 75 74 83 81 83 67 58 64 61 68 65
70 82 83 82 78 77 74 71 77 80 77 91 95 97 100 98 95 88 90 92 84 88 87 92 92 81 83 59 45 50 49 49 52 61 68 63 58 71 76 82 69 66 79 75 66 60 74
75 71 69 79 77 80 72 75 71 75 79 80 93 87 100 100 93 86 92 92 85 90 86 88 94 82 76 42 51 52 48 51 55 64 68 64 69 74 89 75 83 80 74 88 66 58 72
81 82 78 74 73 68 72 75 75 73 79 83 91 91 100 100 90 94 91 85 88 90 94 96 78 77 78 50 52 47 52 52 57 71 77 76 77 92 95 97 80 72 89 96 76 56 89
82 86 81 78 78 73 73 73 75 74 75 82 94 93 99 99 90 90 91 91 86 90 94 83 80 80 55 52 47 48 48 55 67 72 80 88 94 99 96 99 86 90 83 77 80 79 75
85 87 86 84 78 78 74 72 72 71 76 81 94 100 100 91 87 90 97 82 83 82 84 76 70 66 59 50 52 56 62 65 69 81 83 91 100 99 89 80 77 100 69 68 74 81 77
84 80 84 84 83 79 77 77 68 73 73 80 93 96 100 90 89 86 99 88 66 53 75 80 67 67 58 54 68 65 64 76 88 78 82 95 100 95 66 69 80 96 77 81 75 78 75
79 84 82 82 84 86 82 83 75 74 85 83 90 96 100 94 91 94 96 77 62 56 74 68 65 63 59 59 74 74 70 83 90 92 89 96 89 92 95 84 87 85 82 87 80 86 81
88 90 90 85 87 80 95 87 85 85 90 83 87 96 98 92 96 95 91 69 61 58 78 50 70 64 69 72 75 67 73 83 96 100 100 100 96 96 96 89 92 93 75 69 85 88 98
90 89 88 94 85 86 91 93 89 90 90 82 92 90 98 87 92 96 69 67 60 46 47 36 64 55 71 80 81 77 82 96 98 98 100 99 96 100 95 85 81 75 76 78 84 87 87
88 90 94 93 84 90 89 92 96 91 83 85 88 98 100 90 97 84 68 62 53 73 41 64 64 64 69 79 77 76 92 94 87 98 97 99 92 89 91 87 78 71 81 84 82 79 89
92 98 89 93 94 94 93 93 95 90 89 90 91 100 98 88 93 74 64 62 82 65 50 64 68 63 69 73 71 84 84 88 94 95 96 100 98 90 89 86 81 74 72 91 83 88 79
98 98 93 87 87 94 82 79 83 92 99 90 91 100 99 94 86 71 63 77 71 61 75 69 67 63 68 67 64 71 80 91 81 81 92 96 98 94 85 90 88 85 69 80 85 87 82
99 93 85 91 93 91 87 90 87 93 93 92 94 100 99 97 83 71 78 90 73 74 69 80 62 62 62 61 72 67 82 92 83 87 84 89 99 79 86 84 85 79 79 58 73 68 84
86 80 87 86 83 81 84 88 92 92 91 95 100 93 99 94 83 67 91 87 89 66 70 62 55 64 64 65 68 73 82 80 89 79 75 72 98 85 74 81 75 65 54 64 80 71 71
83 88 87 83 81 86 86 96 98 100 98 100 87 96 99 90 74 88 98 91 80 72 66 62 72 75 65 66 66 87 94 75 84 80 69 67 77 82 70 89 97 80 74 72 69 68 58
85 83 76 83 86 85 95 98 100 94 97 82 94 99 99 90 92 92 91 89 69 76 72 70 68 61 58 61 79 86 92 90 80 78 75 73 81 98 90 73 74 74 82 65 76 68 80
83 78 93 80 94 100 100 100 98 88 78 77 98 98 100 85 91 87 88 82 73 75 73 70 71 65 53 65 78 82 83 71 78 75 75 63 81 87 74 60 59 79 79 75 74 73 80
83 88 96 100 100 99 99 99 94 78 70 70 96 99 98 92 75 83 92 88 85 67 70 69 61 56 59 71 78 81 82 75 74 72 68 62 80 67 77 68 76 75 79 79 75 80 76
83 96 100 100 96 88 97 98 89 74 70 68 96 98 83 97 96 91 83 82 87 80 67 65 60 58 60 68 74 87 83 74 65 70 67 66 86 81 78 74 74 75 77 78 86 72 74
84 99 100 83 100 98 99 99 89 80 74 76 91 93 84 82 68 87 86 84 81 78 72 69 65 59 58 62 58 76 78 74 72 65 71 74 93 75 82 70 68 68 65 71 75 76 76
88 93 100 97 100 100 100 92 80 76 69 83 78 74 82 74 72 84 78 83 78 76 75 67 63 66 70 66 64 65 72 77 73 67 76 76 79 78 85 75 59 64 57 62 66 67 65
92 95 100 91 100 99 93 84 70 65 54 58 70 76 86 93 77 68 82 76 80 72 79 79 64 61 63 66 63 56 66 72 73 77 76 78 82 84 90 58 53 48 50 49 56 64 66
94 100 98 100 96 92 100 81 55 46 42 45 64 70 88 81 84 81 80 89 85 85 89 82 80 79 71 58 70 71 76 61 70 79 77 75 79 86 83 82 49 55 55 52 50 70 79
94 97 89 99 96 90 98 86 70 80 59 46 57 60 77 86 80 83 86 79 88 90 85 79 74 77 64 75 68 70 77 69 73 73 66 70 74 76 88 82 51 43 57 54 45 69 76
95 95 99 92 94 95 87 99 73 84 78 59 61 57 64 91 93 84 85 81 82 85 92 83 78 70 64 79 79 82 73 67 78 77 81 84 86 87 84 89 75 59 58 52 66 52 77
90 89 90 95 95 96 92 99 97 92 86 71 63 58 62 97 93 90 86 77 80 82 85 80 74 74 82 74 75 82 79 81 75 70 77 78 86 90 90 93 76 63 57 64 69 76 78
92 96 98 92 95 88 89 91 98 84 81 76 56 57 63 89 90 84 86 85 83 73 88 88 76 81 82 86 81 87 78 81 74 72 71 77 68 75 75 73 61 70 70 82 79 80 89

GFSGBSN_925_rhum_102.txt.gz
RH
83 83 82 84 84 81 76 74 75 74 78 79 82 95 98 99 99 100 93 79 91 89 88 89 92 86 70 55 38 48 66 66 58 52 42 48 50 48 48 41 44 46 38 36 42 42 45
85 82 80 78 81 85 85 79 76 74 74 78 80 93 98 90 100 98 82 90 86 84 92 83 92 82 60 52 34 52 56 49 51 55 54 55 52 49 53 52 51 32 37 34 42 47 48
73 82 83 80 78 83 85 83 78 75 75 73 81 84 99 98 100 94 85 94 91 92 84 81 92 81 64 42 43 53 48 52 57 54 48 53 54 55 57 60 46 45 52 44 42 40 50
89 85 85 89 86 78 81 73 77 76 76 72 79 88 84 98 100 90 90 92 86 80 87 95 94 80 52 42 53 49 54 60 64 65 63 63 63 60 71 61 68 64 52 56 36 47 48
88 89 90 92 91 88 83 83 75 76 78 73 78 91 95 90 99 84 77 85 82 81 92 92 87 66 46 53 55 49 53 47 57 69 73 67 67 77 92 100 97 60 52 52 41 43 49
86 84 85 82 86 90 84 77 75 75 68 76 77 90 89 99 92 78 81 88 88 91 91 81 72 71 53 44 46 49 53 53 51 56 62 70 76 94 100 100 74 53 55 41 51 48 55
85 86 86 82 76 84 82 86 81 84 73 73 79 79 100 100 95 82 86 93 68 79 78 57 51 52 46 48 53 52 58 56 54 59 65 58 100 94 96 73 60 82 50 45 47 39 54
86 91 90 88 86 86 87 83 88 85 79 85 77 84 92 96 96 82 89 76 58 57 67 64 61 59 55 53 57 54 64 60 67 73 58 92 97 75 64 63 60 99 68 51 55 54 48
86 85 89 92 88 89 90 88 91 86 86 86 84 82 92 99 94 94 98 79 67 58 61 62 58 56 53 53 60 61 54 70 78 83 80 95 82 93 88 66 68 86 67 50 63 68 61
87 90 92 91 90 92 84 92 93 93 86 88 89 79 100 95 94 98 98 77 67 58 78 55 65 57 59 59 69 63 65 76 94 100 99 100 91 98 92 69 68 69 53 50 62 63 74
88 90 95 96 98 94 93 93 92 92 82 89 87 77 100 84 93 95 86 68 66 52 69 49 60 57 60 71 68 74 74 94 100 100 100 99 92 95 93 71 62 50 50 62 63 63 62
94 93 97 99 97 99 95 96 96 91 77 88 80 74 100 89 83 84 74 67 54 75 55 77 59 62 67 69 71 71 86 87 87 99 96 96 83 91 78 55 64 68 76 71 60 64 82
98 99 98 98 96 93 93 98 81 87 88 86 82 77 100 85 90 85 70 53 89 73 53 66 66 58 53 57 60 72 77 74 87 100 100 100 97 85 80 73 71 71 89 92 79 81 78
96 91 80 83 87 93 88 87 73 84 91 78 85 96 100 90 82 78 59 66 80 52 67 58 58 52 56 58 58 58 68 68 61 78 94 93 97 97 82 77 67 62 55 64 65 60 66
84 85 86 91 92 87 79 84 86 94 85 75 88 100 91 95 90 69 52 90 76 60 55 60 55 48 55 52 60 55 62 70 66 68 70 72 100 88 73 72 69 59 64 51 58 57 54
86 84 83 86 85 84 84 92 85 82 80 92 100 94 99 95 89 65 70 79 80 57 58 54 45 50 50 56 56 56 60 66 72 64 59 66 99 88 79 64 61 54 48 56 62 58 58
80 85 91 93 94 82 84 82 99 85 94 100 85 95 100 94 72 58 81 73 71 62 60 54 50 54 53 55 60 66 70 63 67 64 53 56 60 88 70 74 77 59 53 53 48 46 37
94 96 99 96 89 83 86 91 99 89 86 91 92 100 100 88 83 67 67 74 65 61 64 63 52 50 50 54 63 65 68 71 63 66 57 57 59 86 73 62 60 62 61 49 52 50 55
96 100 100 99 100 99 100 97 99 97 90 84 98 97 99 92 85 69 73 77 70 66 66 62 60 54 48 58 63 68 69 62 62 63 61 50 58 70 62 53 51 62 62 56 53 55 64
100 100 94 80 80 100 95 94 97 81 78 65 92 98 98 88 63 57 79 77 68 64 64 60 57 50 54 60 60 66 66 64 65 62 68 51 58 56 57 66 66 63 59 57 62 77 44
98 100 98 99 98 93 92 87 77 68 57 63 87 91 81 99 77 69 77 71 68 65 62 54 53 52 52 55 60 65 67 59 55 58 55 51 74 72 63 61 65 62 62 58 81 58 55
95 100 97 97 90 88 81 74 69 63 62 71 88 74 65 63 60 72 79 73 58 70 65 59 55 54 50 52 54 55 60 58 61 49 56 53 74 65 64 51 52 56 54 56 57 60 58
94 100 99 96 84 76 74 74 69 65 65 76 75 69 51 66 65 76 65 70 63 64 66 60 51 52 58 62 56 58 56 56 58 56 58 57 59 60 69 55 46 48 50 51 54 54 55
91 98 100 95 79 73 69 58 55 54 52 57 72 59 56 74 66 63 68 70 67 65 64 66 56 51 58 50 48 44 46 49 48 54 56 56 60 61 60 42 47 46 43 44 51 58 55
83 94 98 100 81 64 52 42 38 38 41 47 60 63 58 69 60 65 73 74 71 69 71 70 72 69 52 50 53 55 52 51 55 57 55 51 52 58 50 44 46 50 49 47 46 56 64
63 96 95 88 100 85 66 51 57 67 48 44 58 64 58 66 70 71 74 70 66 69 68 77 69 68 55 52 48 52 46 57 51 58 55 53 49 45 62 49 32 42 52 48 41 48 65
71 88 93 85 89 97 79 70 71 76 68 50 61 54 61 68 76 74 72 67 69 66 69 72 67 63 57 53 56 56 48 58 54 56 61 62 62 59 56 57 44 41 48 48 54 40 62
75 81 84 81 81 96 93 84 77 80 76 62 62 60 63 76 82 80 76 71 72 66 61 71 62 62 59 57 57 57 54 55 60 57 59 53 56 59 67 67 51 48 53 51 50 62 54
72 87 91 81 75 87 100 100 91 82 76 68 55 58 62 72 79 86 87 86 84 72 69 77 70 69 64 60 58 58 55 59 54 45 59 56 47 45 51 41 50 54 51 60 52 48 60

GFSGBSN_925_rhum_105.txt.gz
RH
79 77 80 78 75 74 76 85 83 72 76 72 74 79 81 99 99 100 100 82 91 89 84 88 88 89 64 54 39 48 65 68 62 52 37 34 38 32 35 24 25 30 30 29 29 31 33
74 85 89 88 88 87 82 82 85 80 73 76 72 74 82 98 100 100 96 75 81 83 93 89 94 86 59 62 31 40 50 53 42 43 37 39 39 35 41 37 35 27 24 24 25 28 34
79 86 90 88 89 93 88 86 83 79 77 76 73 77 83 99 98 99 88 90 86 84 85 90 89 81 61 49 32 39 45 41 42 43 38 38 40 44 38 46 35 38 45 33 29 30 35
80 88 87 89 91 90 90 75 83 80 80 74 76 78 83 98 100 97 93 95 88 67 84 67 88 75 60 40 37 45 40 42 48 47 48 46 48 46 49 51 54 60 55 59 31 27 31
86 85 87 90 92 88 89 90 86 84 83 73 74 78 82 84 96 96 98 91 72 91 84 92 86 68 46 49 41 36 38 42 43 50 54 50 53 56 67 80 82 61 70 50 39 21 30
78 88 89 92 94 89 82 86 89 82 85 78 75 76 84 92 99 97 79 78 98 93 87 76 60 56 42 39 40 41 42 43 42 42 52 58 64 75 80 94 76 82 69 40 38 24 30
85 88 90 91 91 92 91 90 90 89 86 86 79 78 84 100 97 80 84 94 70 73 67 50 45 44 37 38 46 44 43 46 45 48 58 51 87 81 65 65 79 69 51 45 39 20 44
85 86 90 93 96 96 92 92 94 89 82 89 86 86 81 99 94 96 95 78 53 56 71 50 51 47 45 46 50 46 51 58 60 80 60 86 90 56 89 78 91 96 62 53 37 36 39
96 97 93 95 87 98 95 98 86 92 88 88 87 84 76 97 97 94 94 76 69 57 51 60 51 50 46 49 52 52 54 60 69 90 98 95 74 87 96 73 70 63 63 53 95 43 36
93 93 94 90 91 94 96 86 95 86 82 89 89 90 89 100 96 98 95 80 68 59 81 60 57 51 53 53 68 48 55 65 94 98 100 100 80 93 95 73 51 50 37 73 81 52 67
94 84 90 95 99 97 97 96 88 82 79 80 82 91 100 86 96 89 92 73 65 57 71 49 55 52 50 71 57 67 62 89 100 99 100 94 83 92 88 57 44 55 42 50 58 53 64
85 88 91 91 89 90 97 92 84 78 79 73 68 95 99 89 93 89 81 75 63 88 69 82 52 60 64 60 57 64 78 81 82 99 96 85 74 81 69 53 48 55 59 93 90 79 64
85 88 86 85 87 91 90 94 85 81 78 81 76 84 99 92 91 77 75 57 93 74 44 68 67 53 48 51 51 58 69 95 95 100 100 97 87 73 71 66 74 98 97 93 88 92 72
85 82 85 86 85 83 80 79 79 89 83 82 74 92 98 95 87 79 64 67 84 48 57 48 50 48 50 49 49 48 55 94 79 74 77 88 94 96 67 80 93 98 71 78 92 82 71
92 88 96 94 92 87 82 79 90 83 88 78 99 95 98 100 90 79 60 85 82 56 46 52 50 46 48 44 49 45 50 61 58 56 88 94 99 71 61 60 61 57 60 47 53 39 57
100 99 83 79 98 88 76 80 79 79 80 81 95 94 99 100 89 80 66 73 69 48 49 43 41 40 41 44 45 44 47 54 63 52 58 69 93 69 62 54 51 49 42 57 60 52 57
100 98 100 81 82 91 94 76 82 86 88 86 84 92 100 92 74 61 78 65 55 48 54 49 40 41 41 43 47 47 50 53 55 55 46 57 69 77 56 62 71 56 50 42 44 40 36
99 97 92 98 74 72 93 85 87 94 91 84 88 100 99 85 88 58 52 66 64 50 54 51 42 41 42 45 47 46 55 56 52 52 51 47 56 75 67 50 47 53 52 42 59 39 38
100 99 91 92 95 78 76 85 88 93 78 82 95 96 91 99 83 55 59 63 60 52 53 49 47 42 42 47 50 51 51 53 51 54 56 46 50 75 59 48 43 48 42 40 43 59 54
94 99 99 94 97 90 85 99 95 78 64 73 76 99 96 73 50 47 65 62 52 56 54 48 46 42 43 44 44 52 49 52 53 49 65 50 51 54 64 70 60 55 47 42 61 72 42
98 90 90 96 100 79 72 78 92 84 64 68 60 77 66 82 64 53 66 54 52 53 52 46 44 43 43 42 43 47 48 43 44 48 46 43 65 70 52 50 58 50 49 46 67 44 54
87 90 78 79 87 92 98 93 80 71 63 68 60 59 59 58 51 55 67 60 46 54 53 46 45 46 39 47 48 46 46 44 49 39 44 42 64 60 53 42 44 45 42 42 46 45 45
83 87 81 72 70 70 68 69 67 63 68 63 59 54 41 60 51 57 53 54 50 51 56 51 43 41 49 56 47 45 43 44 47 48 45 45 50 55 61 43 39 43 47 44 46 46 47
99 86 85 76 62 59 59 60 60 60 59 54 57 44 43 63 52 52 54 58 50 54 53 53 50 43 52 42 40 38 39 40 40 44 43 42 46 49 50 40 53 46 39 39 44 48 47
91 99 85 79 59 51 50 50 40 42 50 60 63 50 44 53 47 49 56 58 58 56 59 58 62 55 42 45 46 44 41 45 44 47 44 42 40 44 46 33 37 44 44 44 44 44 48
72 87 85 81 68 71 72 71 62 57 45 56 67 64 44 47 50 48 58 56 50 49 58 66 58 52 50 44 41 45 36 43 37 42 46 45 40 39 44 42 27 35 44 40 37 42 50
75 86 85 81 71 84 79 76 71 72 66 54 68 57 52 55 60 59 61 61 55 49 50 60 56 56 51 46 48 46 38 46 43 42 45 47 46 48 38 45 31 38 44 40 48 48 50
74 83 86 84 73 82 87 87 79 77 70 63 64 61 66 60 69 66 64 63 60 54 49 60 55 55 51 54 48 44 41 42 47 42 44 42 42 43 46 50 48 39 48 46 48 47 47
91 98 96 77 70 82 89 87 79 76 80 76 59 56 71 63 70 75 77 78 77 70 64 66 65 57 58 51 46 45 42 43 42 33 47 46 37 38 39 37 41 38 42 48 42 46 48

GFSGBSN_925_rhum_108.txt.gz
RH
82 83 81 90 91 91 90 87 86 85 84 74 77 73 74 75 92 97 100 98 85 93 77 83 79 84 68 52 40 65 63 68 65 50 36 32 37 36 38 29 25 28 28 26 28 32 33
84 76 78 89 91 92 92 88 85 86 82 80 73 75 77 81 95 94 100 92 92 90 88 78 91 76 59 55 31 50 48 55 42 42 34 35 37 36 43 40 39 30 29 29 29 30 27
79 81 79 92 94 83 83 94 87 85 85 81 79 76 79 82 90 96 99 99 92 95 92 90 92 78 58 41 31 37 43 39 39 41 37 35 36 44 43 46 38 42 54 45 41 35 33
74 70 80 85 92 84 89 90 87 76 84 85 81 75 76 80 91 100 99 98 89 79 87 89 88 77 58 40 37 40 38 37 42 43 43 43 43 47 52 51 56 61 60 74 45 40 34
64 66 80 88 89 93 93 87 87 91 90 85 87 78 78 80 86 99 100 94 82 82 94 88 90 71 48 42 35 34 34 38 40 46 46 43 43 59 57 79 78 64 85 61 49 36 36
67 73 86 87 89 95 92 91 86 90 76 74 89 82 83 80 89 93 99 82 77 90 88 77 58 64 40 39 38 37 38 40 39 44 51 57 65 80 75 90 85 74 72 84 73 39 34
80 82 90 91 97 89 91 99 95 88 78 76 89 88 88 95 99 98 82 97 92 76 63 58 49 41 36 40 42 42 40 42 43 48 62 56 92 94 77 69 61 62 83 74 53 32 39
85 90 88 86 94 89 84 86 84 78 76 85 89 89 89 98 99 92 90 84 58 57 74 58 44 41 42 42 48 44 45 54 60 83 69 91 96 64 53 66 75 86 86 78 57 48 41
89 83 88 88 91 92 95 92 93 80 87 89 89 90 90 96 97 92 92 84 69 59 58 59 47 48 46 47 51 50 50 58 89 99 100 100 77 73 87 87 80 81 74 68 81 76 45
87 86 79 86 92 85 94 86 75 80 80 90 89 83 76 95 97 99 89 72 81 66 94 67 60 52 50 51 68 44 53 73 95 100 99 97 73 87 86 80 65 74 48 58 85 89 95
96 90 83 83 86 90 84 74 92 83 89 78 87 89 100 87 93 88 87 76 80 63 92 52 56 51 48 67 60 65 60 89 99 98 99 95 89 74 77 63 50 53 56 94 83 98 73
90 92 94 84 91 92 80 80 77 85 89 80 90 77 92 88 93 90 86 79 71 92 93 75 55 62 63 62 59 71 80 80 81 98 97 94 70 82 69 63 58 55 84 95 100 100 98
99 73 86 91 94 79 94 84 91 95 95 80 75 84 95 84 96 82 78 70 94 92 46 70 68 53 55 57 55 61 90 96 91 100 97 90 87 74 69 81 74 94 100 98 97 98 98
100 91 71 97 85 78 77 80 95 88 82 72 78 80 97 87 80 72 73 80 83 48 60 45 49 50 60 47 49 47 82 81 71 68 96 94 86 93 70 85 100 97 97 99 96 97 98
100 98 74 93 81 80 89 92 96 75 78 96 87 87 98 100 86 75 77 92 92 74 43 51 50 56 54 47 50 46 59 61 60 58 91 100 93 67 73 68 69 75 95 67 100 57 85
100 99 74 91 92 87 86 84 70 70 77 80 85 89 99 91 87 78 91 72 67 46 45 42 48 41 43 44 48 44 54 55 61 52 65 63 88 63 60 58 62 66 48 74 95 88 95
100 99 80 82 95 76 74 72 78 69 78 71 81 94 99 82 76 80 92 69 51 45 54 55 45 38 40 44 44 46 55 59 56 57 53 56 76 67 55 67 72 63 64 51 50 48 52
99 100 97 90 97 93 84 93 74 79 77 72 74 98 85 82 86 70 70 63 61 50 50 50 47 42 44 44 49 49 57 62 52 52 58 48 63 84 67 48 45 56 49 47 87 70 66
91 97 96 99 88 78 95 87 96 78 72 72 95 97 81 98 90 63 55 56 56 52 52 52 47 44 41 47 55 52 49 53 52 57 62 55 65 89 66 58 48 51 47 53 50 79 61
79 94 98 83 94 91 95 91 82 76 68 70 71 99 89 77 64 56 60 54 50 54 52 46 44 41 38 43 42 52 50 49 52 50 63 64 62 73 90 76 66 65 54 53 74 79 66
76 79 85 91 80 91 96 94 80 73 66 81 62 77 66 89 68 57 63 52 47 52 47 42 42 44 43 46 42 49 44 43 44 42 45 53 72 72 51 51 58 50 53 54 63 54 70
87 70 71 79 90 82 76 84 79 77 72 74 71 67 63 59 50 54 70 57 45 49 59 44 49 43 49 58 55 60 53 56 56 48 44 45 71 58 53 42 41 52 49 53 54 51 57
89 80 68 70 67 74 85 87 87 72 76 75 56 49 58 58 52 54 57 53 46 50 54 50 51 45 57 60 50 45 42 42 44 54 54 50 61 71 72 50 45 58 51 49 50 52 53
99 92 78 67 61 56 48 52 58 61 60 64 53 52 55 68 55 51 50 53 50 54 56 51 59 51 54 41 45 45 38 39 40 45 44 50 49 59 76 49 66 53 41 39 49 50 56
95 96 99 74 66 56 53 60 64 50 54 60 60 65 58 58 52 48 50 56 57 58 58 60 63 57 45 52 58 50 56 49 43 46 49 47 51 56 72 49 39 45 48 47 47 56 48
66 97 97 95 69 62 52 57 69 66 54 62 64 63 70 54 56 44 54 56 59 56 65 65 57 50 56 58 52 50 52 43 43 49 46 49 48 56 54 58 43 45 46 39 38 60 54
56 74 94 92 80 74 61 64 68 69 63 59 59 60 75 66 60 63 62 66 57 51 66 63 60 60 52 62 63 65 50 44 54 47 49 56 56 64 63 66 46 48 48 39 58 60 56
55 86 98 99 85 89 89 74 74 71 71 65 65 58 78 74 70 65 63 68 65 64 64 65 64 64 63 67 61 54 52 53 53 40 43 49 54 64 55 57 63 50 51 55 57 54 54
66 99 98 86 76 92 98 81 76 73 78 73 68 61 63 77 83 72 74 74 75 70 79 73 71 64 77 71 60 56 57 53 46 49 48 61 49 57 48 58 46 50 50 47 49 54 49

GFSGBSN_925_rhum_111.txt.gz
RH
78 69 68 80 85 92 93 91 89 90 78 82 83 77 75 79 82 90 99 100 100 90 93 85 70 74 65 68 55 71 68 73 56 45 37 39 39 42 46 42 41 35 31 32 34 37 34
86 75 64 65 86 87 94 97 90 89 84 78 82 82 78 82 84 91 89 100 100 98 88 71 92 70 67 52 59 61 56 60 47 41 36 37 43 41 45 47 49 46 51 47 44 42 37
78 75 70 70 76 90 94 80 89 87 78 76 82 83 80 80 83 96 86 99 99 95 90 91 72 69 62 38 40 45 52 46 40 41 43 46 44 50 55 60 53 55 65 57 51 50 51
72 79 79 83 83 83 97 82 87 86 94 80 86 88 82 83 84 97 98 100 93 95 92 90 76 80 65 42 40 39 40 39 42 42 43 42 41 51 54 57 64 66 63 82 51 50 48
84 82 84 86 86 84 92 91 82 84 93 86 90 90 85 86 86 96 100 93 85 90 87 90 89 80 61 39 36 38 38 39 44 44 46 42 46 60 66 82 87 76 93 83 67 46 50
93 88 84 89 86 84 89 93 85 91 88 86 90 90 91 78 68 100 92 83 89 88 89 81 69 69 49 48 37 35 34 38 43 55 57 59 73 90 84 96 94 87 94 77 81 56 52
95 90 81 83 87 91 91 76 68 74 78 93 92 91 65 97 99 89 86 99 90 85 72 70 60 48 42 42 40 41 40 43 44 50 70 69 96 97 88 84 72 74 82 81 67 60 63
95 95 82 80 88 92 94 92 93 79 82 91 91 86 61 100 100 85 79 88 71 64 80 60 52 45 43 43 54 50 43 56 63 85 76 91 95 74 66 61 69 98 94 84 66 57 61
96 91 88 81 89 96 97 92 89 86 89 92 91 82 63 99 92 77 84 87 74 65 72 65 53 50 51 48 54 62 52 65 83 93 96 97 81 78 86 92 95 87 87 84 85 67 63
80 93 92 85 88 90 86 78 79 90 94 74 90 71 78 94 89 88 93 74 73 65 89 70 64 57 53 52 70 53 61 72 85 89 97 93 71 81 84 89 82 91 62 78 94 83 97
99 67 92 88 87 93 85 79 95 95 68 79 99 97 97 90 92 92 90 71 70 70 84 57 64 51 55 68 64 72 70 86 98 97 99 83 88 93 77 69 64 73 54 76 93 98 85
99 61 74 92 68 69 87 94 94 83 74 79 87 86 84 81 86 94 87 74 73 84 75 68 66 71 73 68 64 73 79 79 81 98 97 96 71 85 73 62 63 66 80 87 100 98 98
98 62 76 95 96 96 96 95 93 75 75 79 87 81 71 78 95 82 72 76 85 79 49 70 70 63 63 75 72 81 95 98 98 93 94 93 88 80 71 86 79 92 100 97 97 97 98
87 66 65 94 93 97 96 96 95 70 68 80 93 72 82 86 79 71 71 85 78 57 66 49 55 54 68 52 55 64 88 86 79 76 92 91 77 85 74 83 100 100 100 99 96 97 98
91 74 82 91 93 94 96 96 83 91 85 83 70 82 98 96 83 70 89 94 89 69 53 55 52 60 61 49 53 54 68 73 63 61 87 90 85 68 74 72 83 91 100 85 100 94 91
97 97 97 94 95 95 96 90 78 89 82 74 78 88 96 86 82 74 92 80 67 53 60 51 60 52 52 50 58 51 63 63 68 57 65 74 96 66 60 67 67 84 61 84 96 96 96
89 85 96 95 94 95 96 78 69 86 81 78 74 93 83 83 72 92 92 75 59 47 60 64 62 53 49 51 52 58 69 64 61 63 62 63 79 71 58 66 73 77 70 57 58 66 90
86 85 95 92 97 93 89 75 81 80 72 69 79 97 76 78 96 89 83 67 58 50 52 59 51 49 53 54 60 55 66 67 57 59 68 55 71 89 67 53 47 55 62 56 86 71 78
89 87 82 81 82 87 80 78 84 73 83 75 95 91 76 91 92 87 60 63 60 67 61 56 54 48 44 49 61 54 56 54 54 59 61 59 77 90 74 60 58 69 53 58 61 75 83
78 91 80 67 69 76 78 73 71 76 91 85 85 92 88 89 87 67 68 55 61 57 59 50 48 47 45 44 48 55 53 53 52 49 57 63 68 76 90 74 72 69 60 59 70 90 83
81 70 80 82 72 63 70 68 73 79 88 92 79 84 79 93 75 68 68 62 52 62 55 50 47 55 55 60 54 59 54 55 49 45 46 58 73 72 57 55 54 55 60 64 71 64 76
94 79 66 75 71 62 60 64 69 72 78 82 81 82 79 79 56 62 72 60 51 55 60 60 56 59 64 68 63 68 61 61 60 56 50 55 73 63 59 44 46 53 56 57 62 63 69
81 96 73 67 66 71 72 73 73 75 72 79 65 58 72 74 67 66 69 58 53 56 56 53 60 59 64 62 58 56 56 50 47 54 63 57 69 79 77 55 48 61 51 53 52 60 64
73 90 88 72 58 63 63 59 55 56 56 68 66 66 79 76 75 64 58 57 55 62 62 56 65 58 55 50 54 50 52 48 44 48 52 60 58 72 83 53 59 55 42 43 55 58 61
67 76 91 83 67 62 50 47 55 52 55 65 65 74 87 84 68 59 53 61 61 59 62 65 66 60 61 60 63 59 64 51 50 50 50 56 61 61 70 69 42 54 50 53 57 57 60
56 68 78 85 81 68 76 75 61 54 50 55 52 59 85 84 70 69 56 59 74 73 73 67 60 57 59 72 65 54 58 46 48 48 48 53 58 65 62 57 47 40 49 40 41 60 57
47 60 72 75 81 80 69 81 75 64 56 47 55 58 74 84 76 76 74 78 69 68 78 70 63 63 58 76 72 75 60 45 59 55 50 62 65 68 70 75 56 48 50 42 55 42 61
35 60 94 97 94 79 82 77 82 71 67 59 62 53 67 88 80 72 72 82 85 78 79 71 65 67 76 72 74 70 63 59 53 50 49 57 70 70 68 64 63 55 52 49 44 61 60
31 70 100 96 85 79 83 99 90 76 79 67 66 61 61 80 82 73 71 70 75 77 91 83 76 73 80 79 76 70 64 66 60 59 51 58 54 54 58 60 46 59 47 51 58 62 60

GFSGBSN_925_rhum_114.txt.gz
RH
90 68 74 81 73 75 86 94 93 89 92 85 86 80 79 79 81 86 93 97 99 100 98 80 76 83 64 65 63 60 71 64 50 38 35 39 42 43 49 47 44 40 45 47 47 47 43
68 83 85 84 83 79 82 97 91 84 93 87 81 77 83 82 81 88 90 87 100 99 94 78 88 69 64 56 69 69 69 52 40 40 39 40 45 43 50 52 51 52 56 54 53 53 51
84 90 92 89 91 89 84 96 92 87 86 82 76 79 87 84 85 95 70 98 100 97 89 91 69 67 58 42 62 58 51 47 41 42 49 47 44 51 53 59 57 57 62 57 49 49 50
89 90 88 89 89 88 83 90 84 85 82 86 75 78 87 88 88 93 88 97 88 88 94 92 74 66 58 42 48 50 44 43 42 41 43 42 40 50 53 56 64 67 65 82 51 48 51
92 89 88 79 84 87 81 86 80 85 84 82 82 92 82 78 82 77 99 99 87 94 92 83 69 71 61 39 41 40 39 43 43 45 45 44 48 60 66 81 85 74 85 86 71 53 56
90 88 85 78 88 93 85 80 78 89 83 84 91 79 55 75 86 99 89 87 90 81 79 75 71 60 53 51 36 38 38 40 49 54 59 60 82 90 90 92 88 83 92 83 80 58 55
87 87 86 80 90 94 86 73 77 82 90 93 90 66 80 83 97 83 90 85 85 88 73 70 70 55 49 43 40 41 41 43 46 53 78 78 94 98 92 88 70 71 84 89 73 59 66
99 92 89 85 88 93 94 91 94 80 92 91 77 100 98 99 90 95 78 80 86 70 77 58 53 49 45 44 57 48 43 57 65 84 79 83 91 76 74 74 81 85 91 82 71 61 64
95 94 92 90 93 93 96 94 90 94 83 72 78 86 98 99 81 72 78 87 77 61 69 61 53 54 50 47 57 62 51 63 80 84 91 78 73 71 78 80 85 80 86 86 90 68 71
82 84 94 91 93 83 95 95 94 76 87 97 69 76 89 78 75 87 92 72 71 60 87 72 66 59 54 54 74 56 64 70 85 82 81 88 72 80 84 83 71 87 66 74 80 96 95
80 75 94 94 95 92 90 94 73 89 84 74 66 70 81 86 81 90 94 68 64 65 71 56 67 52 57 70 70 75 72 77 91 89 92 81 91 90 95 74 68 76 62 70 80 99 97
77 97 95 98 94 94 94 93 94 92 81 80 80 85 86 82 86 94 79 67 65 73 72 68 68 71 77 70 69 76 78 78 80 91 88 92 77 85 79 63 58 63 91 87 96 99 100
95 94 96 98 95 96 96 96 76 69 82 88 82 80 85 87 95 81 70 68 78 82 49 63 73 74 75 79 74 82 94 98 97 92 92 86 88 79 75 87 82 96 100 97 97 97 96
95 92 94 95 97 97 96 94 88 77 96 88 74 70 85 98 80 68 69 73 83 56 63 53 65 65 70 66 70 80 91 92 90 84 87 88 85 87 75 92 100 100 100 98 96 97 96
94 94 95 94 96 96 96 95 91 90 86 80 71 78 90 85 77 67 76 91 82 71 61 57 54 62 64 52 56 67 85 76 66 64 86 88 86 63 70 71 90 91 100 94 100 99 88
75 94 80 94 96 78 80 92 88 85 79 77 77 86 82 76 71 70 86 81 66 56 60 54 64 56 56 53 57 60 70 66 71 60 66 70 92 66 60 69 74 84 75 95 98 94 96
68 72 87 77 77 75 69 74 79 79 82 73 72 88 73 69 71 83 91 78 58 49 58 58 62 57 54 58 58 64 74 64 62 65 66 66 79 74 60 62 70 72 77 65 64 89 97
66 59 61 70 79 74 68 67 74 87 85 67 78 94 68 71 85 90 81 67 58 54 55 58 54 53 54 55 63 59 65 64 57 61 68 58 74 91 65 56 52 57 64 64 80 71 81
100 73 67 63 66 68 59 72 77 87 92 84 93 94 67 83 88 87 64 60 60 64 62 57 55 50 47 51 60 56 56 51 55 58 57 58 79 89 54 48 56 72 60 62 67 76 90
91 92 73 66 57 53 62 71 72 76 85 82 87 89 86 89 88 72 67 56 57 56 62 52 54 49 48 55 53 55 55 50 51 51 58 61 72 74 76 66 70 72 65 66 70 91 87
82 85 83 78 58 50 54 66 69 66 64 79 86 84 79 91 74 71 68 61 58 63 56 53 50 63 61 58 58 66 60 60 49 55 52 57 68 70 63 62 58 55 65 73 73 68 74
81 72 76 75 63 53 51 54 58 60 61 74 86 81 82 84 72 67 75 60 55 57 62 59 61 62 67 66 65 65 64 59 62 57 60 60 69 66 62 51 49 52 53 58 64 68 74
82 80 68 72 72 72 65 61 58 55 60 74 76 67 77 76 73 70 70 63 59 59 56 56 62 66 61 60 60 59 59 64 59 54 63 60 71 81 78 59 54 60 51 54 55 61 69
67 83 83 62 57 55 58 55 48 44 46 63 68 71 84 82 78 68 61 62 66 64 68 59 63 62 57 58 60 59 63 60 56 50 57 61 66 76 83 52 59 44 45 45 52 59 63
47 72 84 84 71 62 65 64 58 52 54 58 65 75 88 83 77 66 58 63 66 67 66 68 64 63 67 63 64 58 54 48 50 55 53 59 66 67 62 68 42 49 50 56 50 44 64
24 52 68 81 90 69 70 70 65 57 54 53 53 59 82 87 73 67 70 59 76 75 77 68 61 59 62 77 68 56 60 47 48 48 53 61 63 62 71 51 47 27 45 44 37 50 60
29 27 55 67 80 84 72 68 75 69 54 49 52 56 73 85 81 73 75 75 76 75 82 79 67 62 60 79 76 81 66 48 55 58 51 64 69 70 70 80 62 41 51 41 40 24 64
42 24 44 68 99 99 88 79 71 76 72 66 56 55 66 88 83 74 72 79 82 86 83 74 68 64 81 72 79 75 72 61 62 53 52 53 72 76 74 70 58 56 52 52 41 63 61
40 33 50 81 95 99 100 93 81 79 79 77 70 62 62 77 79 72 70 67 68 66 86 84 75 79 84 83 82 80 67 73 64 62 50 64 56 54 59 58 43 58 44 50 60 64 61

GFSGBSN_925_rhum_117.txt.gz
RH
81 87 91 90 81 90 88 86 86 85 86 83 98 85 79 80 82 84 89 94 99 99 100 88 91 70 58 60 74 61 67 61 39 34 36 40 47 44 48 50 48 45 49 53 52 55 52
91 92 89 92 93 90 91 87 93 95 88 86 88 83 83 84 84 88 88 89 100 100 91 92 91 63 56 76 68 75 54 41 41 40 46 43 47 44 55 55 53 60 62 59 54 52 52
88 88 90 79 87 89 91 78 85 76 89 84 78 79 84 87 89 89 82 82 96 98 92 93 69 55 53 72 69 58 64 44 42 43 50 46 44 49 53 58 60 62 65 60 51 46 49
97 83 83 76 90 91 81 82 88 85 92 80 78 82 89 86 68 94 91 99 95 82 94 93 66 51 60 46 61 52 43 43 41 42 43 43 41 52 52 55 65 70 65 78 50 52 49
99 84 85 84 93 90 91 80 82 80 79 78 88 84 80 76 50 99 100 92 85 83 93 71 60 51 59 46 50 48 41 43 44 45 48 48 49 65 68 79 79 72 82 80 72 54 60
97 85 85 85 89 92 87 94 93 85 87 94 81 73 69 97 80 99 90 94 83 83 72 60 56 47 51 48 40 40 40 44 50 55 60 67 82 89 91 91 85 82 89 82 88 60 59
88 88 92 90 91 95 89 90 89 93 94 80 73 67 86 94 96 81 78 72 78 75 66 70 68 57 52 44 40 40 42 45 48 58 80 82 94 97 79 84 74 76 84 87 71 60 69
89 88 86 87 93 92 92 92 94 93 81 93 90 93 89 88 97 88 78 82 87 63 70 58 55 52 45 45 56 49 44 57 64 83 76 78 91 77 75 79 84 92 86 78 68 63 68
93 88 89 91 92 93 95 95 93 91 89 84 98 90 90 78 80 76 82 91 73 58 68 62 53 56 51 47 62 60 49 64 78 83 83 90 73 70 80 80 83 80 81 77 83 74 75
90 92 93 94 94 93 92 92 94 88 75 86 95 91 86 87 74 87 93 76 64 56 89 76 64 59 53 56 77 60 66 69 83 75 85 86 72 84 89 88 80 78 61 69 81 94 96
94 93 91 93 93 95 93 93 98 94 62 75 87 84 80 75 77 95 93 65 59 54 92 56 67 53 58 69 72 76 72 71 89 86 88 78 90 84 93 84 73 80 59 73 96 99 100
88 92 88 95 95 94 94 96 92 99 99 93 83 85 80 78 85 95 79 63 58 73 80 70 66 69 74 70 72 77 77 74 83 93 88 95 75 86 84 70 61 57 75 86 93 99 99
57 89 96 96 95 94 94 82 96 97 97 95 86 82 78 81 95 72 64 61 78 85 49 65 74 77 75 76 76 83 90 97 98 98 86 82 85 83 82 92 80 88 100 97 95 96 93
70 60 87 96 95 86 95 76 90 90 84 86 89 78 78 79 72 62 62 73 86 60 62 52 65 71 75 72 75 84 90 94 92 92 95 88 78 89 83 91 98 100 100 99 98 96 92
70 68 63 73 84 73 80 74 74 75 74 71 70 72 73 72 65 60 67 90 80 70 60 59 57 66 65 59 62 77 93 80 73 88 87 94 87 58 71 76 85 92 100 96 100 96 92
80 65 64 55 58 62 73 73 81 84 67 62 67 78 73 67 66 64 86 79 70 60 60 58 63 58 57 55 61 66 73 65 70 67 67 74 93 65 62 69 82 83 78 98 97 97 93
73 71 68 66 52 49 71 77 83 79 70 60 65 80 63 62 68 81 89 78 61 50 58 59 63 59 57 60 60 65 65 62 64 65 70 71 82 74 59 60 67 75 77 80 72 89 93
78 68 66 65 55 47 65 74 76 81 63 59 74 83 57 63 82 90 80 67 60 59 58 59 56 56 56 56 61 61 65 63 59 62 69 62 77 95 68 53 57 59 64 68 87 69 89
99 85 65 59 55 52 62 65 68 74 83 64 90 89 54 66 87 88 68 59 60 63 61 57 56 53 51 53 60 59 55 49 57 59 59 61 81 88 52 46 55 68 61 66 71 76 87
84 94 72 64 53 58 65 65 60 61 75 68 84 86 86 86 88 73 81 60 54 56 60 55 55 52 53 54 54 58 61 50 57 53 56 61 74 69 76 61 66 74 65 70 71 89 86
70 79 91 76 60 52 62 66 61 56 60 71 86 84 81 90 76 73 75 67 63 63 58 58 54 65 67 59 62 65 62 62 51 58 59 60 66 70 66 70 65 59 60 72 76 71 70
75 69 72 76 61 58 55 59 67 62 56 64 85 87 88 84 78 66 72 64 60 59 63 60 62 68 64 63 64 64 66 61 62 59 61 63 65 70 70 56 58 57 54 56 60 69 74
73 74 67 69 72 67 67 63 60 60 64 74 77 71 78 77 75 72 70 68 62 64 58 59 65 71 65 59 61 61 61 65 65 62 65 64 71 80 75 66 58 51 54 53 57 63 70
44 70 76 63 60 58 58 52 48 47 50 64 68 73 84 80 81 72 61 62 66 67 69 62 64 65 56 66 66 64 69 72 71 65 62 64 67 77 84 53 38 30 49 46 54 56 68
27 52 72 79 63 61 60 60 57 48 55 58 66 70 87 82 82 71 67 62 65 68 67 68 65 62 68 64 67 59 56 48 50 60 61 63 68 65 61 66 40 37 52 58 57 45 60
32 29 59 75 82 68 64 64 61 60 52 57 53 61 79 84 78 59 70 60 74 76 74 66 62 63 62 76 67 58 58 48 46 45 62 68 66 63 72 54 31 20 43 47 36 45 42
61 35 32 59 69 77 79 68 67 70 61 54 52 61 73 85 81 71 77 72 75 78 82 79 68 65 62 79 76 82 70 52 60 58 55 69 73 77 70 76 54 41 49 43 23 16 54
89 41 35 34 54 67 81 80 74 73 73 67 64 58 70 88 84 76 70 76 81 85 82 70 68 67 83 74 81 77 77 65 68 58 53 54 66 76 76 70 53 55 47 45 31 55 59
91 85 40 34 58 85 98 99 88 75 78 79 76 69 64 78 76 72 67 63 65 66 82 86 74 77 80 87 88 85 73 77 68 66 53 62 56 53 61 57 42 57 50 46 53 56 57

GFSGBSN_925_rhum_120.txt.gz
RH
94 87 86 82 85 89 89 92 75 80 81 83 98 90 92 83 82 79 86 89 98 100 94 87 86 60 50 73 73 70 68 45 35 32 40 43 51 45 50 52 48 48 58 57 56 56 54
98 80 78 86 90 90 90 86 82 77 84 87 97 89 86 86 86 86 88 86 99 100 88 76 74 56 47 92 74 67 42 40 40 38 46 46 50 48 59 59 55 64 64 63 55 53 51
89 81 80 87 91 89 90 94 94 88 91 91 89 80 81 86 89 83 88 87 98 95 90 95 58 50 62 78 69 66 43 42 42 42 49 46 43 51 53 54 62 64 61 58 47 48 51
86 84 84 85 89 92 82 95 97 98 93 87 86 77 84 75 70 89 83 100 99 86 92 78 56 42 58 54 56 47 43 44 45 44 44 45 42 54 55 56 62 70 63 61 43 55 50
86 86 87 84 86 91 90 80 77 80 78 78 94 91 72 64 99 95 98 95 90 88 70 62 49 45 57 60 58 45 42 46 46 47 51 50 53 72 68 73 73 71 76 76 70 54 58
82 86 89 87 88 89 90 93 92 91 92 80 77 64 95 62 97 92 91 79 68 60 53 42 44 45 49 44 43 41 42 45 53 54 59 71 82 88 92 87 82 80 84 81 85 62 60
86 87 90 85 88 91 92 95 91 91 99 96 66 82 99 94 99 86 70 53 62 69 61 66 63 59 53 44 40 44 43 46 50 61 78 82 94 97 79 84 73 84 88 95 72 61 72
89 89 91 89 91 92 90 91 89 95 99 86 71 91 81 81 93 86 70 85 87 58 72 57 54 53 45 46 55 51 46 58 66 85 78 81 94 75 74 78 85 95 86 84 72 63 74
91 90 90 90 89 91 94 96 95 98 99 88 84 90 87 80 79 72 86 97 69 54 71 62 55 57 53 50 65 57 49 63 77 74 80 90 71 70 83 84 89 93 91 84 84 68 75
93 91 91 90 91 95 98 94 93 97 100 93 94 90 87 80 71 80 89 76 62 57 89 75 68 59 54 58 75 64 69 69 82 79 90 92 72 81 90 87 79 90 66 76 80 92 88
94 91 92 94 94 97 99 99 95 96 86 92 94 80 78 71 84 96 82 64 57 49 94 58 68 54 58 71 69 75 71 70 86 77 87 75 86 83 90 79 74 78 60 68 84 99 99
96 93 56 90 63 71 94 99 98 82 79 78 82 78 73 72 74 78 66 57 50 75 92 72 66 68 72 71 76 80 77 73 82 88 80 84 77 85 76 74 64 58 72 86 92 98 98
96 97 68 52 59 50 78 87 82 76 78 75 77 75 70 76 79 65 58 55 78 86 51 68 73 76 75 77 77 89 92 88 92 93 86 76 94 82 84 94 80 85 99 97 91 94 93
97 96 72 56 51 55 67 80 78 74 71 73 69 68 66 70 68 63 52 73 86 63 63 54 65 73 77 70 72 85 93 93 92 86 98 99 78 84 84 86 90 100 100 98 98 97 94
88 83 76 60 60 57 60 63 67 69 62 62 64 63 61 59 59 60 66 90 80 70 60 62 63 69 65 62 70 82 93 83 73 89 89 97 90 60 85 83 86 91 100 96 100 93 95
90 75 66 58 58 61 63 72 78 76 59 57 59 67 62 61 61 55 85 78 71 60 60 59 61 59 59 59 64 78 71 66 69 75 68 78 96 66 63 75 77 86 78 92 96 95 95
78 74 70 57 53 66 68 67 71 78 64 62 60 74 56 61 57 78 89 76 64 54 59 61 64 61 59 61 62 67 64 61 64 68 74 75 86 76 61 61 68 72 75 81 84 91 98
82 74 63 59 51 64 68 68 66 73 68 56 70 76 54 59 81 90 81 71 62 61 59 61 57 58 58 58 61 63 67 61 58 63 71 67 80 96 67 59 59 60 64 74 90 70 90
84 83 61 53 52 60 66 65 67 70 73 58 84 85 48 60 82 85 67 58 61 63 61 59 56 55 53 56 64 62 56 49 58 62 61 62 82 88 55 47 51 67 66 67 76 81 88
76 72 65 54 50 59 65 68 64 63 69 59 79 80 82 88 86 74 71 66 54 55 59 59 58 53 56 53 56 60 58 51 56 57 58 62 77 69 76 58 66 78 69 68 76 89 79
77 71 72 63 51 50 58 61 58 64 60 68 87 83 83 88 77 74 73 67 61 57 58 61 56 66 69 69 62 62 61 65 53 58 65 64 73 75 73 71 70 73 64 62 80 72 72
69 75 68 74 53 50 53 63 63 60 60 63 82 83 88 85 79 66 72 67 61 60 61 58 62 68 66 68 63 64 67 63 64 64 63 67 75 72 74 60 57 63 58 59 65 71 75
34 70 75 68 71 60 63 58 49 45 50 73 81 76 77 78 76 69 70 68 64 65 58 57 63 71 68 60 62 64 62 66 66 68 69 70 76 82 64 64 56 42 48 57 59 62 65
48 38 66 76 64 60 60 56 53 49 49 60 72 73 83 76 81 74 63 60 68 67 69 62 66 67 57 66 70 68 75 80 80 79 72 67 68 78 86 57 24 22 49 47 55 58 71
89 41 40 67 78 65 62 61 61 55 55 57 65 70 86 81 82 74 70 68 66 68 73 69 63 62 69 64 68 61 54 47 51 63 74 69 70 70 71 71 37 21 45 56 54 41 56
91 82 40 39 66 79 67 62 68 69 57 52 53 61 76 84 74 60 68 64 76 78 77 71 62 65 62 76 66 55 54 48 47 47 70 71 70 66 71 53 27 14 38 48 36 34 25
92 90 69 40 41 65 78 77 67 75 73 55 52 59 69 85 81 70 76 70 75 80 83 79 70 69 63 79 74 83 69 56 63 56 63 76 79 81 76 78 54 36 47 44 22 14 42
90 96 90 52 38 39 59 73 79 74 80 70 66 59 64 88 84 76 69 76 84 86 82 70 71 72 84 73 79 80 80 71 70 62 61 62 79 84 80 74 58 52 50 42 29 40 56
82 97 94 91 38 35 48 81 99 94 85 85 78 70 66 72 74 65 61 58 57 63 82 85 78 76 80 82 87 85 79 84 71 64 58 63 52 52 59 53 36 59 44 46 47 53 51

GFSGBSN_925_rhum_123.txt.gz
RH
80 81 85 85 89 86 88 92 93 92 78 78 95 91 84 88 79 80 65 89 87 97 94 81 66 52 49 76 76 59 49 39 33 29 41 46 51 45 53 53 48 48 56 55 53 56 54
82 87 82 85 88 88 90 93 94 96 91 84 98 85 88 86 86 84 68 88 86 99 92 81 55 48 59 93 73 47 40 39 39 39 46 46 49 51 57 60 51 63 63 60 56 52 50
80 78 80 85 94 92 95 95 97 97 83 90 91 92 87 88 85 89 78 81 100 89 84 61 59 62 62 69 71 44 40 43 43 42 49 45 44 48 54 56 61 62 53 52 47 49 50
85 85 82 85 89 90 91 96 96 93 94 90 92 92 80 66 64 85 82 97 99 91 72 49 47 55 65 59 48 44 42 46 46 46 47 50 42 59 59 57 56 64 55 43 34 51 51
84 85 88 87 86 88 90 90 90 91 92 93 82 64 60 93 78 76 93 97 89 64 54 39 36 45 63 62 50 44 42 47 47 50 52 49 56 74 67 66 64 63 59 68 60 54 56
90 86 90 91 90 88 85 90 97 95 87 67 75 80 90 94 84 100 89 65 51 42 38 37 40 47 48 47 43 42 45 47 54 54 59 70 80 81 85 75 60 71 78 74 74 57 60
84 84 87 86 89 91 90 98 100 96 98 85 82 87 90 94 96 92 78 53 57 64 57 62 60 60 52 44 41 46 45 47 51 64 78 79 84 82 75 77 69 81 88 90 75 62 68
89 89 90 92 94 93 93 96 100 90 96 96 74 78 93 94 82 75 69 85 93 57 69 56 53 53 46 47 52 50 47 58 68 83 77 76 87 70 72 77 82 94 94 77 67 62 68
92 90 95 95 93 94 91 92 97 99 99 99 97 89 82 78 67 60 90 99 66 56 71 63 58 58 55 54 66 56 52 64 75 71 79 87 68 69 78 85 79 74 88 83 84 64 68
94 94 96 97 93 95 98 98 80 89 89 79 78 76 73 67 58 72 77 71 57 53 88 72 67 60 55 60 72 67 69 69 75 86 89 91 73 79 87 89 74 88 68 74 79 91 90
94 95 96 87 97 87 75 73 75 79 80 82 76 73 70 71 72 77 76 61 53 46 89 57 67 54 58 70 67 70 70 69 86 84 82 74 80 89 92 78 70 77 61 66 72 98 98
93 95 95 88 80 72 67 68 70 71 69 74 71 66 70 64 64 75 65 56 44 77 94 70 67 69 72 72 76 78 78 72 79 91 79 84 75 84 77 75 68 62 77 84 93 98 95
95 95 96 83 77 74 73 70 68 68 72 72 69 62 59 62 68 60 55 51 79 87 52 68 70 74 75 77 83 90 89 81 91 91 93 78 86 83 82 95 79 86 100 96 86 91 85
95 96 78 85 69 72 68 70 71 59 60 63 62 54 55 61 58 56 46 72 84 64 64 55 66 72 79 67 72 89 93 87 92 82 96 96 82 86 87 87 91 98 100 97 96 93 89
76 75 74 68 75 79 80 81 88 66 50 52 52 54 56 59 59 58 65 89 81 71 61 66 68 70 64 61 69 80 93 89 76 92 84 93 86 61 85 77 83 87 94 88 100 87 94
66 65 60 60 69 76 77 75 80 91 56 48 51 58 58 56 61 50 85 79 71 59 60 60 60 60 61 59 66 73 70 64 69 84 68 78 98 69 66 79 81 83 78 86 88 96 92
85 58 54 52 60 69 72 72 73 75 64 58 52 71 55 54 50 77 89 78 65 58 60 63 64 62 62 63 64 68 65 56 65 70 77 76 88 74 62 66 72 71 70 78 84 90 90
91 95 48 45 50 62 68 72 68 74 64 57 64 73 50 52 79 90 79 66 62 62 60 63 59 61 61 59 64 66 66 60 62 68 76 73 83 97 68 55 57 63 65 75 86 73 85
70 96 68 43 46 55 62 67 67 67 68 59 79 76 50 54 79 81 62 58 61 62 62 60 59 57 55 59 64 61 59 50 64 68 63 67 82 89 51 43 51 63 65 65 78 81 84
67 74 82 69 47 51 57 60 60 64 65 57 77 71 78 86 86 71 63 63 54 54 61 60 60 55 58 56 58 64 58 53 58 61 60 64 80 71 67 48 59 74 67 69 78 87 75
38 67 77 76 66 47 50 56 60 59 63 62 88 84 78 81 76 79 73 68 60 53 58 61 57 67 68 69 63 64 61 64 54 59 68 68 82 81 75 69 69 72 70 66 81 72 73
45 34 74 74 75 61 52 64 54 47 52 63 80 85 89 84 79 66 69 69 63 61 62 57 62 65 70 70 62 61 67 66 66 63 62 70 78 73 82 66 77 69 64 65 65 73 77
84 43 34 80 68 71 67 56 51 48 48 71 82 77 75 80 77 70 68 69 68 67 57 58 62 71 70 70 63 66 66 67 64 68 72 70 77 81 77 59 62 44 47 61 57 68 64
90 85 37 45 80 65 64 61 57 51 51 58 69 73 82 69 83 75 67 68 75 71 66 63 68 69 54 65 69 72 79 84 84 84 77 73 70 79 86 56 22 18 49 49 56 57 66
87 91 85 34 60 80 66 66 64 61 56 58 62 69 84 78 83 75 73 70 62 69 78 73 67 65 69 66 69 64 52 45 61 73 86 80 72 74 73 73 38 23 39 55 50 33 52
85 86 93 81 33 59 81 72 68 69 67 53 54 65 71 80 75 59 68 68 76 75 76 71 64 69 64 78 68 56 49 44 48 50 78 74 72 67 76 57 27 10 34 50 38 24 28
89 81 92 91 80 37 54 78 80 73 76 68 54 58 69 83 80 69 76 74 76 80 82 80 70 72 66 83 79 86 68 59 59 55 83 84 83 86 80 78 56 34 48 49 18 13 26
94 89 84 93 90 81 38 50 73 83 82 82 66 61 62 88 82 73 66 74 88 86 81 69 77 79 88 82 80 78 85 75 71 62 64 74 85 90 84 79 57 51 52 37 22 31 48
99 96 93 87 94 90 69 38 56 88 97 96 85 76 68 72 79 64 57 51 54 57 80 85 79 73 83 80 87 85 82 88 77 63 60 65 52 52 62 55 39 55 45 43 39 43 47

GFSGBSN_925_rhum_126.txt.gz
RH
76 82 88 85 85 89 88 92 94 95 80 96 97 89 88 88 82 82 74 89 99 96 84 86 61 47 55 57 64 54 38 36 30 28 36 33 32 32 33 34 33 32 35 37 36 38 36
76 84 85 88 86 93 92 97 93 97 94 98 96 81 83 88 81 77 90 78 100 91 85 62 51 54 60 81 65 47 41 41 42 38 39 35 35 32 35 36 31 38 38 33 33 33 32
82 86 85 87 90 91 91 92 88 77 87 90 81 84 92 86 77 90 92 86 100 90 84 55 55 58 60 76 59 46 38 45 46 41 40 44 40 31 32 40 41 40 32 24 28 33 36
88 90 86 86 86 88 92 93 97 95 92 94 92 77 72 69 82 92 90 94 99 89 69 60 54 52 61 54 47 43 45 47 52 52 54 51 43 43 41 42 37 36 35 24 28 38 40
84 83 79 82 89 95 96 94 94 91 84 59 70 66 77 88 74 89 90 98 70 53 47 45 44 46 62 54 44 44 46 45 48 50 52 50 50 52 47 44 42 39 31 37 34 41 42
85 87 91 90 95 95 99 99 84 99 93 90 94 99 88 88 79 98 92 78 63 57 43 40 44 42 48 48 43 43 47 50 46 48 48 50 56 54 54 52 38 51 51 47 44 39 45
89 93 88 93 95 96 91 94 95 96 95 78 96 86 98 99 80 86 72 71 54 42 44 48 47 47 44 45 45 46 48 44 46 46 56 60 80 67 61 55 55 65 59 55 44 39 55
97 92 87 97 98 97 96 97 99 99 98 100 88 87 79 77 76 71 55 67 82 49 58 45 42 44 47 46 44 45 46 50 51 63 58 57 70 57 59 64 65 73 80 60 48 49 52
94 94 89 98 99 99 97 94 94 80 77 83 88 80 78 62 62 55 83 91 66 57 52 56 53 50 51 49 54 54 48 56 60 67 70 77 58 57 64 68 69 62 65 62 78 58 50
96 98 97 95 83 98 82 73 70 70 70 64 67 65 65 61 57 66 81 67 58 50 83 59 58 55 50 54 62 62 63 59 64 75 74 73 61 66 72 71 62 66 53 61 73 80 71
96 98 99 100 91 73 92 86 67 67 62 65 67 67 60 52 58 71 66 57 53 49 78 51 57 53 54 59 60 61 68 60 78 74 76 72 66 73 78 63 62 60 58 73 84 92 95
95 97 98 99 100 94 86 90 87 69 67 61 61 63 57 47 52 65 57 54 44 87 84 78 58 61 61 62 64 66 67 65 65 74 65 73 63 72 65 64 61 57 76 78 85 97 90
93 96 96 96 88 90 96 94 99 83 65 58 52 51 50 51 66 56 53 48 95 79 51 68 66 64 64 63 67 75 75 68 79 95 98 66 69 68 72 75 69 82 97 83 84 88 73
69 76 79 79 81 78 80 97 99 75 66 53 50 47 50 55 53 52 49 54 85 59 59 52 60 62 63 58 62 70 70 68 75 70 80 86 80 72 71 68 87 84 98 92 86 72 67
58 60 64 67 74 78 70 74 78 68 61 59 55 50 50 53 52 51 41 92 81 63 55 60 60 58 54 54 60 60 67 68 60 71 74 72 74 54 65 59 68 70 75 70 100 67 78
58 53 55 60 69 70 72 66 66 68 52 56 56 58 63 51 46 47 67 72 66 54 55 53 54 52 52 51 56 56 55 52 60 64 58 65 89 56 58 65 65 72 67 76 88 84 76
82 63 48 50 57 65 67 68 61 60 60 55 56 52 52 52 44 48 89 66 60 53 54 57 54 53 51 53 54 53 51 47 55 62 60 65 76 60 58 66 55 67 59 63 64 69 67
72 69 49 45 49 58 62 65 63 59 59 52 66 70 49 48 65 60 58 60 61 58 56 58 57 55 53 52 54 52 50 46 50 56 60 58 65 78 49 49 48 51 53 51 72 62 58
72 70 65 54 51 50 59 62 60 61 60 57 67 69 48 52 68 56 57 55 56 57 57 55 54 52 50 53 52 52 52 47 53 58 55 56 65 72 37 42 50 55 53 50 59 67 70
36 66 67 65 58 52 47 56 63 58 62 53 52 76 57 57 62 45 49 53 53 53 56 55 53 51 50 50 49 53 50 48 54 54 60 56 63 59 52 35 42 47 53 52 60 81 53
80 35 64 66 65 57 50 56 56 48 51 60 61 69 75 62 50 56 52 49 51 50 54 55 56 55 53 49 50 53 53 48 50 56 63 59 70 63 62 53 52 55 51 48 74 54 60
86 81 36 66 66 64 64 60 50 48 46 66 56 57 66 63 62 57 59 54 46 48 49 52 54 53 57 53 39 41 48 51 46 54 53 57 65 61 67 45 56 64 50 50 50 48 49
81 88 78 35 72 66 63 63 56 48 48 74 81 76 54 70 60 56 44 48 51 55 52 48 48 52 57 48 44 45 45 44 47 52 53 58 60 58 53 45 43 35 25 34 37 38 39
88 83 89 78 35 73 65 66 66 56 52 55 70 67 55 46 57 51 57 62 62 62 60 56 59 58 47 54 54 59 62 62 59 60 54 57 60 59 58 41 32 19 39 33 34 32 40
89 88 83 90 75 36 67 67 70 67 60 57 61 66 58 49 52 54 59 59 56 55 66 67 57 52 58 54 52 46 40 42 53 63 68 61 56 56 52 42 24 21 31 41 42 21 28
95 88 88 84 91 72 36 61 74 73 72 63 56 64 61 55 48 49 56 58 54 54 54 62 58 65 57 57 53 48 31 34 36 48 64 70 62 58 57 52 23 11 32 39 36 16 24
99 95 90 90 84 91 66 34 62 82 79 78 60 59 66 64 56 56 55 52 56 61 57 64 64 68 62 57 55 53 39 47 40 43 69 70 68 75 61 56 35 24 39 39 21 12 18
100 100 98 94 90 89 93 63 36 67 88 87 75 64 68 68 60 64 57 63 73 66 55 60 67 71 69 66 58 46 55 48 54 42 50 51 59 64 60 63 58 34 46 30 18 23 35
99 100 100 100 96 90 94 94 55 39 77 98 94 80 70 72 69 62 58 50 49 50 54 68 67 63 61 62 59 56 57 61 50 37 49 46 35 32 43 35 32 35 35 30 30 31 34

GFSGBSN_925_rhum_129.txt.gz
RH
84 86 88 85 90 92 92 95 95 88 96 98 98 96 92 85 84 75 89 90 97 88 72 63 59 47 48 44 47 39 36 33 31 30 27 26 23 23 23 22 24 22 21 25 26 29 29
86 90 84 90 89 90 92 94 98 97 99 99 97 93 89 82 69 59 88 84 97 94 71 48 45 57 46 58 48 39 35 34 32 29 28 25 25 21 23 24 22 26 24 23 22 24 23
79 80 82 90 89 89 94 92 96 95 93 95 81 89 92 91 82 62 88 99 93 83 50 48 56 46 47 58 43 39 40 42 39 35 32 34 31 24 21 26 28 25 24 15 18 22 26
85 86 89 97 94 91 91 79 71 90 93 89 76 76 80 91 76 77 93 97 91 75 54 53 47 43 59 55 41 38 38 40 44 44 43 40 34 31 31 28 26 28 27 23 25 30 32
90 88 93 92 96 92 93 98 98 96 92 68 64 58 62 63 80 94 99 95 76 62 50 43 42 37 52 45 37 40 40 40 42 43 43 41 39 38 38 40 38 34 24 24 26 33 36
92 88 95 89 90 92 96 94 97 99 100 99 99 95 89 90 88 98 69 50 42 39 37 37 33 36 44 41 39 40 40 43 40 40 44 42 44 47 42 47 42 46 40 30 30 28 32
93 95 89 91 96 96 97 98 98 100 100 100 99 83 90 97 89 79 43 50 35 36 35 39 38 41 37 38 41 40 42 40 40 35 44 46 82 57 49 42 42 48 42 41 36 34 46
95 96 87 92 89 94 93 97 95 92 93 94 92 84 84 83 61 61 66 52 65 43 54 41 40 41 40 38 42 43 42 43 41 56 47 52 61 46 49 52 52 57 64 49 43 41 46
93 96 97 95 99 99 97 98 88 74 76 75 74 76 84 70 63 65 73 81 69 58 45 50 45 46 47 43 49 53 44 48 52 65 58 62 50 48 54 57 56 50 51 50 69 56 44
98 93 97 100 98 97 97 96 77 68 65 64 63 56 50 51 54 68 68 60 54 62 72 54 50 50 45 47 56 51 53 54 55 66 62 60 52 56 60 62 52 56 47 57 67 76 69
95 92 96 99 92 94 93 97 96 71 64 61 59 52 48 56 61 57 68 58 62 53 86 46 49 47 45 51 52 57 57 52 70 66 64 67 55 61 69 53 52 55 54 68 79 91 81
93 90 90 98 95 98 94 98 95 70 64 56 55 49 43 50 59 56 51 52 52 83 84 81 50 52 50 50 54 54 57 55 58 66 57 62 53 62 55 55 54 51 65 75 72 89 91
54 62 62 80 98 96 98 86 73 64 60 58 53 43 37 40 52 45 49 47 91 79 47 64 58 50 47 48 49 56 58 51 62 92 98 61 59 56 58 63 59 70 97 93 92 94 72
47 43 55 65 70 78 76 75 57 53 53 52 52 50 42 43 43 45 57 53 91 54 56 48 52 46 50 46 49 51 56 53 56 60 74 77 88 59 58 60 73 68 86 91 86 68 61
55 44 40 60 64 63 70 65 67 52 46 48 48 64 63 56 50 54 42 93 81 58 48 50 46 45 44 45 51 46 47 48 48 54 66 63 61 47 53 50 58 59 76 61 88 58 75
90 63 41 47 59 61 59 63 59 60 51 45 58 56 59 45 46 61 64 65 59 48 47 45 44 42 42 42 47 44 41 39 48 49 48 53 79 46 48 55 55 64 55 69 93 78 73
79 78 56 38 44 55 59 58 58 54 57 47 57 43 53 45 45 41 82 59 51 46 48 48 45 45 40 42 42 38 38 39 43 49 48 51 61 53 48 56 50 68 56 51 54 56 64
67 76 74 63 45 44 50 55 55 55 55 59 49 65 48 40 54 36 46 46 50 50 49 49 49 45 42 41 42 40 38 35 39 45 48 46 52 66 43 39 40 39 41 39 59 54 49
43 57 75 72 72 56 46 49 56 54 58 63 43 44 54 54 62 43 50 49 48 49 46 48 46 44 40 42 45 39 40 40 43 48 47 46 54 66 42 40 45 47 41 40 40 59 70
83 51 49 74 71 63 53 56 54 46 48 65 43 68 43 39 42 35 42 44 48 49 46 45 41 43 42 40 36 39 41 38 49 48 59 53 50 55 50 34 34 42 36 40 48 68 45
80 86 52 48 72 68 58 60 48 45 45 70 45 49 54 50 36 40 40 36 40 49 51 44 46 43 36 34 37 37 36 37 40 52 54 53 62 50 48 44 43 46 44 40 55 56 47
85 81 86 49 49 69 64 61 54 47 46 58 51 44 49 42 46 41 47 41 38 34 40 43 49 34 38 39 26 23 31 33 31 46 46 45 55 46 59 35 34 45 38 39 39 38 44
92 88 81 86 46 49 67 63 60 52 52 52 61 58 48 53 42 40 30 32 38 36 34 38 41 39 42 38 35 33 31 32 32 39 43 44 51 51 52 33 32 33 25 31 34 31 34
97 92 88 82 86 48 49 67 66 60 52 62 60 53 46 33 38 34 41 45 45 43 47 42 45 45 42 40 39 37 46 43 41 40 41 44 51 51 57 38 45 25 30 24 25 24 25
99 99 91 87 82 86 54 49 71 68 63 64 59 56 47 44 34 34 42 43 42 44 54 50 44 40 46 46 43 33 36 41 44 48 50 49 49 54 57 39 27 19 26 34 32 20 20
99 99 98 90 88 83 86 48 52 76 70 70 60 60 52 51 39 36 41 41 41 35 36 50 49 52 52 46 41 40 27 25 30 54 53 54 53 52 45 54 30 13 26 30 29 25 21
99 99 100 100 92 90 86 89 46 60 81 77 73 55 59 60 46 44 46 41 39 41 41 48 52 64 55 47 47 39 31 34 32 33 68 68 67 75 62 59 39 20 31 33 25 17 19
98 97 100 100 99 97 90 88 92 49 73 91 80 69 67 61 53 52 46 47 52 51 39 54 56 63 62 56 43 39 38 32 44 28 43 46 52 58 52 54 63 29 41 28 18 22 24
96 94 97 100 100 100 99 87 95 89 54 90 97 83 71 72 62 63 57 52 48 45 46 48 48 54 47 48 42 40 44 40 35 30 33 39 27 25 34 37 27 27 22 24 25 26 27